Wetterdaten: aktuell Dienstag, 23.07.2019 12:45
Datum Zeit Temp. A. Temp. A. min Temp. A. max Feuchte A. Luftdruck Regen Wind Richtung Richtung Sonnenschein UV Solar Windben
23.07.2019 12:45 31,7 C 31,7 C 31,7 C 38 % 1021,4 hPa 0,0 l/m 1,6 km/h (1 Bft) S-SO 157 1 min 6,2 UV-I 780 W/m 3,2 km/h (1 Bft)
23.07.2019 12:44 31,7 C 31,7 C 31,7 C 38 % 1021,4 hPa 0,0 l/m 3,2 km/h (1 Bft) S 180 1 min 6,2 UV-I 780 W/m 6,4 km/h (2 Bft)
23.07.2019 12:43 31,7 C 31,7 C 31,7 C 39 % 1021,4 hPa 0,0 l/m 4,8 km/h (1 Bft) O-SO 112 1 min 6,2 UV-I 780 W/m 8,0 km/h (2 Bft)
23.07.2019 12:42 31,7 C 31,7 C 31,7 C 38 % 1021,5 hPa 0,0 l/m 6,4 km/h (2 Bft) O-NO 67 1 min 6,2 UV-I 780 W/m 11,3 km/h (2 Bft)
23.07.2019 12:41 31,7 C 31,6 C 31,7 C 37 % 1021,5 hPa 0,0 l/m 6,4 km/h (2 Bft) O-SO 112 1 min 6,2 UV-I 780 W/m 11,3 km/h (2 Bft)
23.07.2019 12:40 31,6 C 31,6 C 31,6 C 40 % 1021,5 hPa 0,0 l/m 4,8 km/h (1 Bft) S-SW 202 1 min 6,2 UV-I 782 W/m 8,0 km/h (2 Bft)
23.07.2019 12:39 31,6 C 31,6 C 31,6 C 39 % 1021,5 hPa 0,0 l/m 3,2 km/h (1 Bft) S-SO 157 1 min 6,2 UV-I 782 W/m 8,0 km/h (2 Bft)
23.07.2019 12:38 31,6 C 31,5 C 31,6 C 38 % 1021,5 hPa 0,0 l/m 4,8 km/h (1 Bft) O-SO 112 1 min 6,2 UV-I 780 W/m 9,7 km/h (2 Bft)
23.07.2019 12:37 31,5 C 31,5 C 31,5 C 39 % 1021,6 hPa 0,0 l/m 6,4 km/h (2 Bft) SO 135 1 min 6,2 UV-I 780 W/m 11,3 km/h (2 Bft)
23.07.2019 12:36 31,5 C 31,4 C 31,5 C 39 % 1021,6 hPa 0,0 l/m 4,8 km/h (1 Bft) S 180 1 min 6,2 UV-I 779 W/m 8,0 km/h (2 Bft)
23.07.2019 12:35 31,4 C 31,4 C 31,4 C 38 % 1021,5 hPa 0,0 l/m 4,8 km/h (1 Bft) O-SO 112 1 min 6,2 UV-I 780 W/m 11,3 km/h (2 Bft)
23.07.2019 12:34 31,4 C 31,3 C 31,4 C 38 % 1021,6 hPa 0,0 l/m 6,4 km/h (2 Bft) S-SO 157 1 min 6,1 UV-I 777 W/m 9,7 km/h (2 Bft)
23.07.2019 12:33 31,3 C 31,3 C 31,3 C 40 % 1021,6 hPa 0,0 l/m 4,8 km/h (1 Bft) O-NO 67 1 min 6,1 UV-I 777 W/m 8,0 km/h (2 Bft)
23.07.2019 12:32 31,3 C 31,3 C 31,3 C 38 % 1021,6 hPa 0,0 l/m 8,0 km/h (2 Bft) O-SO 112 1 min 6,2 UV-I 780 W/m 12,9 km/h (3 Bft)
23.07.2019 12:31 31,3 C 31,2 C 31,3 C 39 % 1021,7 hPa 0,0 l/m 4,8 km/h (1 Bft) S-SO 157 1 min 6,1 UV-I 780 W/m 11,3 km/h (2 Bft)
23.07.2019 12:30 31,2 C 31,2 C 31,2 C 39 % 1021,6 hPa 0,0 l/m 3,2 km/h (1 Bft) S-SO 157 1 min 6,1 UV-I 777 W/m 19,3 km/h (3 Bft)
23.07.2019 12:29 31,2 C 31,2 C 31,2 C 38 % 1021,7 hPa 0,0 l/m 9,7 km/h (2 Bft) O-SO 112 1 min 6,1 UV-I 775 W/m 19,3 km/h (3 Bft)
23.07.2019 12:28 31,2 C 31,2 C 31,3 C 39 % 1021,7 hPa 0,0 l/m 4,8 km/h (1 Bft) O 90 1 min 6,1 UV-I 772 W/m 9,7 km/h (2 Bft)
23.07.2019 12:27 31,2 C 31,2 C 31,2 C 39 % 1021,6 hPa 0,0 l/m 4,8 km/h (1 Bft) O 90 1 min 6,0 UV-I 770 W/m 11,3 km/h (2 Bft)
23.07.2019 12:26 31,2 C 31,2 C 31,3 C 40 % 1021,7 hPa 0,0 l/m 4,8 km/h (1 Bft) O 90 1 min 6,1 UV-I 770 W/m 8,0 km/h (2 Bft)
23.07.2019 12:25 31,2 C 31,2 C 31,2 C 39 % 1021,7 hPa 0,0 l/m 8,0 km/h (2 Bft) O 90 1 min 6,0 UV-I 766 W/m 14,5 km/h (3 Bft)
23.07.2019 12:24 31,2 C 31,2 C 31,2 C 39 % 1021,6 hPa 0,0 l/m 6,4 km/h (2 Bft) O-NO 67 1 min 6,0 UV-I 768 W/m 16,1 km/h (3 Bft)
23.07.2019 12:23 31,2 C 31,2 C 31,2 C 40 % 1021,6 hPa 0,0 l/m 6,4 km/h (2 Bft) O 90 1 min 6,0 UV-I 768 W/m 11,3 km/h (2 Bft)
23.07.2019 12:22 31,2 C 31,1 C 31,2 C 39 % 1021,7 hPa 0,0 l/m 6,4 km/h (2 Bft) O-SO 112 1 min 6,0 UV-I 766 W/m 12,9 km/h (3 Bft)
23.07.2019 12:21 31,1 C 31,1 C 31,1 C 39 % 1021,7 hPa 0,0 l/m 4,8 km/h (1 Bft) O-SO 112 1 min 6,0 UV-I 765 W/m 16,1 km/h (3 Bft)
23.07.2019 12:20 31,1 C 31,0 C 31,1 C 39 % 1021,7 hPa 0,0 l/m 6,4 km/h (2 Bft) O-SO 112 1 min 6,0 UV-I 763 W/m 12,9 km/h (3 Bft)
23.07.2019 12:19 31,0 C 31,0 C 31,0 C 39 % 1021,7 hPa 0,0 l/m 11,3 km/h (2 Bft) O-SO 112 1 min 6,0 UV-I 761 W/m 16,1 km/h (3 Bft)
23.07.2019 12:18 30,9 C 30,9 C 30,9 C 43 % 1021,7 hPa 0,0 l/m 3,2 km/h (1 Bft) S 180 1 min 6,0 UV-I 763 W/m 12,9 km/h (3 Bft)
23.07.2019 12:17 30,9 C 30,9 C 30,9 C 40 % 1021,6 hPa 0,0 l/m 3,2 km/h (1 Bft) O-SO 112 1 min 6,0 UV-I 763 W/m 6,4 km/h (2 Bft)
23.07.2019 12:16 30,9 C 30,9 C 30,9 C 39 % 1021,7 hPa 0,0 l/m 3,2 km/h (1 Bft) S-SO 157 1 min 6,0 UV-I 759 W/m 6,4 km/h (2 Bft)
23.07.2019 12:15 30,9 C 30,9 C 30,9 C 39 % 1021,7 hPa 0,0 l/m 4,8 km/h (1 Bft) SW 225 1 min 6,0 UV-I 759 W/m 11,3 km/h (2 Bft)
23.07.2019 12:14 30,9 C 30,9 C 30,9 C 40 % 1021,8 hPa 0,0 l/m 4,8 km/h (1 Bft) S 180 1 min 5,9 UV-I 758 W/m 8,0 km/h (2 Bft)
23.07.2019 12:13 30,9 C 30,9 C 30,9 C 39 % 1021,8 hPa 0,0 l/m 6,4 km/h (2 Bft) O-SO 112 1 min 6,0 UV-I 758 W/m 14,5 km/h (3 Bft)
23.07.2019 12:12 30,9 C 30,9 C 30,9 C 40 % 1021,7 hPa 0,0 l/m 6,4 km/h (2 Bft) S 180 1 min 5,9 UV-I 759 W/m 9,7 km/h (2 Bft)
23.07.2019 12:11 30,9 C 30,8 C 30,9 C 44 % 1021,7 hPa 0,0 l/m 3,2 km/h (1 Bft) S 180 1 min 5,9 UV-I 752 W/m 8,0 km/h (2 Bft)
23.07.2019 12:10 30,8 C 30,8 C 30,8 C 42 % 1021,7 hPa 0,0 l/m 0,0 km/h (0 Bft) O-NO 67 1 min 5,9 UV-I 751 W/m 3,2 km/h (1 Bft)
23.07.2019 12:09 30,8 C 30,8 C 30,8 C 41 % 1021,8 hPa 0,0 l/m 3,2 km/h (1 Bft) O 90 1 min 5,8 UV-I 751 W/m 6,4 km/h (2 Bft)
23.07.2019 12:08 30,8 C 30,8 C 30,8 C 41 % 1021,7 hPa 0,0 l/m 3,2 km/h (1 Bft) O-SO 112 1 min 5,8 UV-I 751 W/m 8,0 km/h (2 Bft)
23.07.2019 12:07 30,8 C 30,8 C 30,8 C 40 % 1021,8 hPa 0,0 l/m 4,8 km/h (1 Bft) SO 135 1 min 5,8 UV-I 751 W/m 9,7 km/h (2 Bft)
23.07.2019 12:06 30,8 C 30,8 C 30,8 C 41 % 1021,8 hPa 0,0 l/m 4,8 km/h (1 Bft) O-SO 112 1 min 5,8 UV-I 749 W/m 9,7 km/h (2 Bft)
23.07.2019 12:05 30,8 C 30,8 C 30,8 C 41 % 1021,8 hPa 0,0 l/m 6,4 km/h (2 Bft) O-SO 112 1 min 5,8 UV-I 745 W/m 11,3 km/h (2 Bft)
23.07.2019 12:04 30,8 C 30,8 C 30,8 C 39 % 1021,7 hPa 0,0 l/m 4,8 km/h (1 Bft) O 90 1 min 5,8 UV-I 747 W/m 9,7 km/h (2 Bft)
23.07.2019 12:03 30,8 C 30,8 C 30,8 C 39 % 1021,8 hPa 0,0 l/m 3,2 km/h (1 Bft) N-NO 22 1 min 5,8 UV-I 745 W/m 8,0 km/h (2 Bft)
23.07.2019 12:02 30,8 C 30,8 C 30,8 C 42 % 1021,8 hPa 0,0 l/m 6,4 km/h (2 Bft) O-SO 112 1 min 5,8 UV-I 747 W/m 11,3 km/h (2 Bft)
23.07.2019 12:01 30,8 C 30,8 C 30,8 C 41 % 1021,8 hPa 0,0 l/m 1,6 km/h (1 Bft) O-SO 112 1 min 5,8 UV-I 745 W/m 3,2 km/h (1 Bft)
23.07.2019 12:00 30,8 C 30,7 C 30,8 C 39 % 1021,8 hPa 0,0 l/m 4,8 km/h (1 Bft) O-NO 67 1 min 5,8 UV-I 744 W/m 12,9 km/h (3 Bft)
23.07.2019 11:59 30,7 C 30,7 C 30,8 C 43 % 1021,8 hPa 0,0 l/m 6,4 km/h (2 Bft) O 90 1 min 5,8 UV-I 742 W/m 12,9 km/h (3 Bft)
23.07.2019 11:58 30,7 C 30,7 C 30,7 C 41 % 1021,9 hPa 0,0 l/m 3,2 km/h (1 Bft) O-SO 112 1 min 5,7 UV-I 733 W/m 4,8 km/h (1 Bft)
23.07.2019 11:57 30,7 C 30,7 C 30,7 C 39 % 1021,8 hPa 0,0 l/m 1,6 km/h (1 Bft) S-SW 202 1 min 5,7 UV-I 737 W/m 4,8 km/h (1 Bft)
23.07.2019 11:56 30,7 C 30,6 C 30,7 C 41 % 1021,9 hPa 0,0 l/m 6,4 km/h (2 Bft) O 90 1 min 5,7 UV-I 738 W/m 9,7 km/h (2 Bft)
23.07.2019 11:55 30,6 C 30,6 C 30,6 C 40 % 1021,9 hPa 0,0 l/m 4,8 km/h (1 Bft) O-SO 112 1 min 5,7 UV-I 737 W/m 6,4 km/h (2 Bft)
23.07.2019 11:54 30,6 C 30,6 C 30,6 C 43 % 1021,9 hPa 0,0 l/m 1,6 km/h (1 Bft) O-SO 112 1 min 5,7 UV-I 737 W/m 6,4 km/h (2 Bft)
23.07.2019 11:53 30,5 C 30,5 C 30,6 C 42 % 1021,9 hPa 0,0 l/m 3,2 km/h (1 Bft) O-NO 67 1 min 5,6 UV-I 731 W/m 12,9 km/h (3 Bft)
23.07.2019 11:52 30,4 C 30,4 C 30,4 C 41 % 1021,9 hPa 0,0 l/m 3,2 km/h (1 Bft) O 90 1 min 5,6 UV-I 731 W/m 12,9 km/h (3 Bft)
23.07.2019 11:51 30,4 C 30,4 C 30,4 C 42 % 1021,9 hPa 0,0 l/m 1,6 km/h (1 Bft) SO 135 1 min 5,6 UV-I 729 W/m 6,4 km/h (2 Bft)
23.07.2019 11:50 30,4 C 30,4 C 30,4 C 42 % 1021,9 hPa 0,0 l/m 6,4 km/h (2 Bft) O-SO 112 1 min 5,6 UV-I 729 W/m 9,7 km/h (2 Bft)
23.07.2019 11:49 30,4 C 30,4 C 30,4 C 41 % 1021,9 hPa 0,0 l/m 8,0 km/h (2 Bft) O-SO 112 1 min 5,6 UV-I 728 W/m 12,9 km/h (3 Bft)
23.07.2019 11:48 30,4 C 30,4 C 30,4 C 42 % 1022,0 hPa 0,0 l/m 4,8 km/h (1 Bft) S-SO 157 1 min 5,6 UV-I 726 W/m 12,9 km/h (3 Bft)
23.07.2019 11:47 30,4 C 30,4 C 30,4 C 42 % 1021,9 hPa 0,0 l/m 6,4 km/h (2 Bft) S-SO 157 1 min 5,5 UV-I 722 W/m 9,7 km/h (2 Bft)
23.07.2019 11:46 30,4 C 30,4 C 30,4 C 43 % 1021,9 hPa 0,0 l/m 3,2 km/h (1 Bft) S-SW 202 1 min 5,5 UV-I 721 W/m 6,4 km/h (2 Bft)
23.07.2019 11:45 30,4 C 30,4 C 30,4 C 43 % 1021,9 hPa 0,0 l/m 4,8 km/h (1 Bft) S 180 1 min 5,5 UV-I 721 W/m 8,0 km/h (2 Bft)
23.07.2019 11:44 30,4 C 30,3 C 30,4 C 42 % 1021,9 hPa 0,0 l/m 1,6 km/h (1 Bft) S 180 1 min 5,4 UV-I 719 W/m 6,4 km/h (2 Bft)
23.07.2019 11:43 30,3 C 30,3 C 30,3 C 43 % 1021,9 hPa 0,0 l/m 0,0 km/h (0 Bft) S-SO 157 1 min 5,4 UV-I 717 W/m 6,4 km/h (2 Bft)
23.07.2019 11:42 30,3 C 30,3 C 30,3 C 41 % 1022,0 hPa 0,0 l/m 1,6 km/h (1 Bft) SO 135 1 min 5,4 UV-I 717 W/m 3,2 km/h (1 Bft)
23.07.2019 11:41 30,3 C 30,3 C 30,3 C 43 % 1022,0 hPa 0,0 l/m 0,0 km/h (0 Bft) SO 135 1 min 5,4 UV-I 714 W/m 4,8 km/h (1 Bft)
23.07.2019 11:40 30,3 C 30,3 C 30,3 C 43 % 1022,0 hPa 0,0 l/m 3,2 km/h (1 Bft) O-NO 67 1 min 5,4 UV-I 715 W/m 9,7 km/h (2 Bft)
23.07.2019 11:39 30,3 C 30,3 C 30,3 C 42 % 1022,0 hPa 0,0 l/m 4,8 km/h (1 Bft) SO 135 1 min 5,4 UV-I 715 W/m 8,0 km/h (2 Bft)
23.07.2019 11:38 30,3 C 30,3 C 30,3 C 41 % 1022,1 hPa 0,0 l/m 8,0 km/h (2 Bft) O-SO 112 1 min 5,4 UV-I 712 W/m 11,3 km/h (2 Bft)
23.07.2019 11:37 30,3 C 30,3 C 30,3 C 42 % 1022,0 hPa 0,0 l/m 6,4 km/h (2 Bft) SO 135 1 min 5,3 UV-I 710 W/m 12,9 km/h (3 Bft)
23.07.2019 11:36 30,3 C 30,2 C 30,3 C 43 % 1022,0 hPa 0,0 l/m 3,2 km/h (1 Bft) S 180 1 min 5,3 UV-I 708 W/m 6,4 km/h (2 Bft)
23.07.2019 11:35 30,2 C 30,2 C 30,2 C 43 % 1022,1 hPa 0,0 l/m 4,8 km/h (1 Bft) S-SO 157 1 min 5,3 UV-I 708 W/m 9,7 km/h (2 Bft)
23.07.2019 11:34 30,2 C 30,2 C 30,2 C 42 % 1022,0 hPa 0,0 l/m 4,8 km/h (1 Bft) S 180 1 min 5,3 UV-I 703 W/m 9,7 km/h (2 Bft)
23.07.2019 11:33 30,2 C 30,2 C 30,2 C 43 % 1022,1 hPa 0,0 l/m 8,0 km/h (2 Bft) S 180 1 min 5,2 UV-I 703 W/m 12,9 km/h (3 Bft)
23.07.2019 11:32 30,2 C 30,1 C 30,2 C 43 % 1022,1 hPa 0,0 l/m 3,2 km/h (1 Bft) S-SO 157 1 min 5,3 UV-I 703 W/m 8,0 km/h (2 Bft)
23.07.2019 11:31 30,1 C 30,1 C 30,1 C 43 % 1022,0 hPa 0,0 l/m 4,8 km/h (1 Bft) SO 135 1 min 5,2 UV-I 705 W/m 6,4 km/h (2 Bft)
23.07.2019 11:30 30,1 C 30,1 C 30,1 C 44 % 1022,0 hPa 0,0 l/m 3,2 km/h (1 Bft) S 180 1 min 5,2 UV-I 701 W/m 11,3 km/h (2 Bft)
23.07.2019 11:29 30,1 C 30,0 C 30,1 C 43 % 1022,1 hPa 0,0 l/m 3,2 km/h (1 Bft) O 90 1 min 5,2 UV-I 698 W/m 6,4 km/h (2 Bft)
23.07.2019 11:28 30,0 C 29,9 C 30,0 C 42 % 1022,0 hPa 0,0 l/m 4,8 km/h (1 Bft) SO 135 1 min 5,2 UV-I 698 W/m 9,7 km/h (2 Bft)
23.07.2019 11:27 29,9 C 29,9 C 30,0 C 43 % 1022,0 hPa 0,0 l/m 4,8 km/h (1 Bft) O 90 1 min 5,2 UV-I 694 W/m 11,3 km/h (2 Bft)
23.07.2019 11:26 29,9 C 29,9 C 29,9 C 42 % 1022,1 hPa 0,0 l/m 4,8 km/h (1 Bft) O 90 1 min 5,1 UV-I 694 W/m 12,9 km/h (3 Bft)
23.07.2019 11:25 29,9 C 29,8 C 29,9 C 43 % 1022,1 hPa 0,0 l/m 3,2 km/h (1 Bft) S-SO 157 1 min 5,1 UV-I 693 W/m 9,7 km/h (2 Bft)
23.07.2019 11:24 29,9 C 29,8 C 29,9 C 43 % 1022,0 hPa 0,0 l/m 6,4 km/h (2 Bft) O 90 1 min 5,1 UV-I 689 W/m 8,0 km/h (2 Bft)
23.07.2019 11:23 29,8 C 29,8 C 29,8 C 44 % 1022,0 hPa 0,0 l/m 4,8 km/h (1 Bft) O 90 1 min 5,1 UV-I 687 W/m 11,3 km/h (2 Bft)
23.07.2019 11:22 29,8 C 29,8 C 29,8 C 45 % 1022,0 hPa 0,0 l/m 3,2 km/h (1 Bft) O 90 1 min 5,0 UV-I 687 W/m 8,0 km/h (2 Bft)
23.07.2019 11:21 29,8 C 29,8 C 29,8 C 42 % 1022,1 hPa 0,0 l/m 6,4 km/h (2 Bft) O 90 1 min 5,0 UV-I 686 W/m 11,3 km/h (2 Bft)
23.07.2019 11:20 29,8 C 29,8 C 29,8 C 44 % 1022,1 hPa 0,0 l/m 6,4 km/h (2 Bft) O-NO 67 1 min 5,0 UV-I 680 W/m 11,3 km/h (2 Bft)
23.07.2019 11:19 29,8 C 29,7 C 29,8 C 44 % 1022,1 hPa 0,0 l/m 8,0 km/h (2 Bft) O-NO 67 1 min 5,0 UV-I 684 W/m 14,5 km/h (3 Bft)
23.07.2019 11:18 29,8 C 29,7 C 29,8 C 43 % 1022,1 hPa 0,0 l/m 4,8 km/h (1 Bft) O-SO 112 1 min 5,0 UV-I 680 W/m 14,5 km/h (3 Bft)
23.07.2019 11:17 29,7 C 29,7 C 29,7 C 43 % 1022,1 hPa 0,0 l/m 3,2 km/h (1 Bft) SO 135 1 min 4,9 UV-I 677 W/m 6,4 km/h (2 Bft)
23.07.2019 11:16 29,7 C 29,7 C 29,7 C 44 % 1022,1 hPa 0,0 l/m 0,0 km/h (0 Bft) N 0 1 min 4,9 UV-I 675 W/m 0,0 km/h (0 Bft)
23.07.2019 11:15 29,7 C 29,6 C 29,7 C 43 % 1022,1 hPa 0,0 l/m 3,2 km/h (1 Bft) O 90 1 min 4,9 UV-I 675 W/m 6,4 km/h (2 Bft)
23.07.2019 11:14 29,6 C 29,6 C 29,6 C 45 % 1022,1 hPa 0,0 l/m 3,2 km/h (1 Bft) O-NO 67 1 min 4,9 UV-I 671 W/m 9,7 km/h (2 Bft)
23.07.2019 11:13 29,6 C 29,5 C 29,6 C 45 % 1022,1 hPa 0,0 l/m 3,2 km/h (1 Bft) O-SO 112 1 min 4,9 UV-I 670 W/m 6,4 km/h (2 Bft)
23.07.2019 11:12 29,5 C 29,4 C 29,5 C 45 % 1022,1 hPa 0,0 l/m 1,6 km/h (1 Bft) O-NO 67 1 min 4,9 UV-I 668 W/m 4,8 km/h (1 Bft)
23.07.2019 11:11 29,4 C 29,3 C 29,4 C 46 % 1022,1 hPa 0,0 l/m 3,2 km/h (1 Bft) S-SO 157 1 min 4,8 UV-I 664 W/m 8,0 km/h (2 Bft)
23.07.2019 11:10 29,3 C 29,3 C 29,3 C 45 % 1022,1 hPa 0,0 l/m 4,8 km/h (1 Bft) O 90 1 min 4,8 UV-I 664 W/m 9,7 km/h (2 Bft)
23.07.2019 11:09 29,3 C 29,3 C 29,3 C 45 % 1022,1 hPa 0,0 l/m 4,8 km/h (1 Bft) O-NO 67 1 min 4,8 UV-I 661 W/m 8,0 km/h (2 Bft)
23.07.2019 11:08 29,3 C 29,2 C 29,3 C 46 % 1022,1 hPa 0,0 l/m 3,2 km/h (1 Bft) O-SO 112 1 min 4,8 UV-I 661 W/m 9,7 km/h (2 Bft)
23.07.2019 11:07 29,2 C 29,2 C 29,2 C 45 % 1022,2 hPa 0,0 l/m 0,0 km/h (0 Bft) N 0 1 min 4,7 UV-I 659 W/m 0,0 km/h (0 Bft)
23.07.2019 11:06 29,2 C 29,1 C 29,2 C 46 % 1022,2 hPa 0,0 l/m 0,0 km/h (0 Bft) O 90 1 min 4,7 UV-I 656 W/m 6,4 km/h (2 Bft)
23.07.2019 11:05 29,1 C 29,1 C 29,1 C 46 % 1022,2 hPa 0,0 l/m 3,2 km/h (1 Bft) O-SO 112 1 min 4,7 UV-I 654 W/m 6,4 km/h (2 Bft)
23.07.2019 11:04 29,1 C 28,9 C 29,1 C 46 % 1022,2 hPa 0,0 l/m 0,0 km/h (0 Bft) O-SO 112 1 min 4,7 UV-I 652 W/m 4,8 km/h (1 Bft)
23.07.2019 11:03 29,0 C 28,9 C 29,0 C 46 % 1022,2 hPa 0,0 l/m 4,8 km/h (1 Bft) O-SO 112 1 min 4,7 UV-I 652 W/m 11,3 km/h (2 Bft)
23.07.2019 11:02 28,9 C 28,9 C 28,9 C 48 % 1022,3 hPa 0,0 l/m 4,8 km/h (1 Bft) O-SO 112 1 min 4,6 UV-I 649 W/m 6,4 km/h (2 Bft)
23.07.2019 11:01 28,9 C 28,8 C 28,9 C 47 % 1022,3 hPa 0,0 l/m 0,0 km/h (0 Bft) O 90 1 min 4,6 UV-I 649 W/m 3,2 km/h (1 Bft)
23.07.2019 11:00 28,8 C 28,8 C 28,8 C 47 % 1022,2 hPa 0,0 l/m 0,0 km/h (0 Bft) N 0 1 min 4,6 UV-I 647 W/m 0,0 km/h (0 Bft)
23.07.2019 10:59 28,8 C 28,8 C 28,8 C 47 % 1022,3 hPa 0,0 l/m 3,2 km/h (1 Bft) O-SO 112 1 min 4,5 UV-I 643 W/m 6,4 km/h (2 Bft)
23.07.2019 10:58 28,8 C 28,7 C 28,8 C 47 % 1022,2 hPa 0,0 l/m 3,2 km/h (1 Bft) S-SO 157 1 min 4,5 UV-I 640 W/m 9,7 km/h (2 Bft)
23.07.2019 10:57 28,8 C 28,7 C 28,8 C 48 % 1022,3 hPa 0,0 l/m 1,6 km/h (1 Bft) S-SW 202 1 min 4,5 UV-I 638 W/m 4,8 km/h (1 Bft)
23.07.2019 10:56 28,8 C 28,7 C 28,8 C 46 % 1022,4 hPa 0,0 l/m 0,0 km/h (0 Bft) N 0 1 min 4,4 UV-I 636 W/m 0,0 km/h (0 Bft)
23.07.2019 10:55 28,8 C 28,7 C 28,8 C 48 % 1022,4 hPa 0,0 l/m 0,0 km/h (0 Bft) N 0 1 min 4,4 UV-I 633 W/m 0,0 km/h (0 Bft)
23.07.2019 10:54 28,7 C 28,7 C 28,7 C 48 % 1022,4 hPa 0,0 l/m 0,0 km/h (0 Bft) S-SO 157 1 min 4,4 UV-I 633 W/m 11,3 km/h (2 Bft)
23.07.2019 10:53 28,7 C 28,7 C 28,7 C 47 % 1022,4 hPa 0,0 l/m 4,8 km/h (1 Bft) O-SO 112 1 min 4,4 UV-I 629 W/m 11,3 km/h (2 Bft)
23.07.2019 10:52 28,7 C 28,7 C 28,7 C 48 % 1022,4 hPa 0,0 l/m 1,6 km/h (1 Bft) O-SO 112 1 min 4,4 UV-I 629 W/m 11,3 km/h (2 Bft)
23.07.2019 10:51 28,7 C 28,7 C 28,7 C 49 % 1022,3 hPa 0,0 l/m 0,0 km/h (0 Bft) N 0 1 min 4,4 UV-I 624 W/m 0,0 km/h (0 Bft)
23.07.2019 10:50 28,7 C 28,7 C 28,7 C 49 % 1022,4 hPa 0,0 l/m 0,0 km/h (0 Bft) N 0 1 min 4,3 UV-I 624 W/m 0,0 km/h (0 Bft)
23.07.2019 10:49 28,6 C 28,6 C 28,7 C 49 % 1022,4 hPa 0,0 l/m 0,0 km/h (0 Bft) N 0 1 min 4,3 UV-I 622 W/m 1,6 km/h (1 Bft)
23.07.2019 10:48 28,6 C 28,6 C 28,7 C 48 % 1022,4 hPa 0,0 l/m 0,0 km/h (0 Bft) N 0 1 min 4,3 UV-I 622 W/m 0,0 km/h (0 Bft)
23.07.2019 10:47 28,6 C 28,6 C 28,6 C 48 % 1022,5 hPa 0,0 l/m 0,0 km/h (0 Bft) N 0 1 min 4,3 UV-I 619 W/m 0,0 km/h (0 Bft)
23.07.2019 10:46 28,6 C 28,6 C 28,6 C 50 % 1022,4 hPa 0,0 l/m 0,0 km/h (0 Bft) N 0 1 min 4,3 UV-I 619 W/m 0,0 km/h (0 Bft)
23.07.2019 10:45 28,6 C 28,5 C 28,6 C 47 % 1022,4 hPa 0,0 l/m 0,0 km/h (0 Bft) N 0 1 min 4,2 UV-I 615 W/m 0,0 km/h (0 Bft)
23.07.2019 10:44 28,6 C 28,5 C 28,6 C 49 % 1022,5 hPa 0,0 l/m 0,0 km/h (0 Bft) N 0 1 min 4,2 UV-I 615 W/m 0,0 km/h (0 Bft)
23.07.2019 10:43 28,5 C 28,4 C 28,5 C 50 % 1022,4 hPa 0,0 l/m 0,0 km/h (0 Bft) N 0 1 min 4,2 UV-I 612 W/m 0,0 km/h (0 Bft)
23.07.2019 10:42 28,5 C 28,4 C 28,5 C 49 % 1022,4 hPa 0,0 l/m 0,0 km/h (0 Bft) N 0 1 min 4,1 UV-I 606 W/m 0,0 km/h (0 Bft)
23.07.2019 10:41 28,4 C 28,4 C 28,4 C 49 % 1022,4 hPa 0,0 l/m 0,0 km/h (0 Bft) N 0 1 min 4,1 UV-I 606 W/m 0,0 km/h (0 Bft)
23.07.2019 10:40 28,4 C 28,3 C 28,4 C 49 % 1022,5 hPa 0,0 l/m 0,0 km/h (0 Bft) N 0 1 min 4,1 UV-I 603 W/m 0,0 km/h (0 Bft)
23.07.2019 10:39 28,3 C 28,3 C 28,3 C 49 % 1022,4 hPa 0,0 l/m 0,0 km/h (0 Bft) N 0 1 min 4,1 UV-I 603 W/m 0,0 km/h (0 Bft)
23.07.2019 10:38 28,3 C 28,3 C 28,3 C 50 % 1022,4 hPa 0,0 l/m 0,0 km/h (0 Bft) N 0 1 min 4,1 UV-I 601 W/m 0,0 km/h (0 Bft)
23.07.2019 10:37 28,3 C 28,2 C 28,3 C 50 % 1022,5 hPa 0,0 l/m 0,0 km/h (0 Bft) N 0 1 min 4,0 UV-I 598 W/m 0,0 km/h (0 Bft)
23.07.2019 10:36 28,2 C 28,2 C 28,2 C 50 % 1022,5 hPa 0,0 l/m 0,0 km/h (0 Bft) N 0 1 min 4,0 UV-I 594 W/m 0,0 km/h (0 Bft)
23.07.2019 10:35 28,2 C 28,2 C 28,2 C 51 % 1022,5 hPa 0,0 l/m 0,0 km/h (0 Bft) N 0 1 min 4,0 UV-I 592 W/m 0,0 km/h (0 Bft)
23.07.2019 10:34 28,1 C 28,1 C 28,2 C 51 % 1022,5 hPa 0,0 l/m 0,0 km/h (0 Bft) N 0 1 min 4,0 UV-I 591 W/m 0,0 km/h (0 Bft)
23.07.2019 10:33 28,1 C 28,1 C 28,1 C 51 % 1022,5 hPa 0,0 l/m 0,0 km/h (0 Bft) N 0 1 min 4,0 UV-I 589 W/m 0,0 km/h (0 Bft)
23.07.2019 10:32 28,1 C 28,1 C 28,1 C 50 % 1022,5 hPa 0,0 l/m 0,0 km/h (0 Bft) N 0 1 min 3,9 UV-I 591 W/m 0,0 km/h (0 Bft)
23.07.2019 10:31 28,1 C 28,1 C 28,1 C 51 % 1022,5 hPa 0,0 l/m 0,0 km/h (0 Bft) N 0 1 min 3,9 UV-I 584 W/m 0,0 km/h (0 Bft)
23.07.2019 10:30 28,1 C 28,0 C 28,1 C 51 % 1022,4 hPa 0,0 l/m 0,0 km/h (0 Bft) N 0 1 min 3,9 UV-I 584 W/m 0,0 km/h (0 Bft)
23.07.2019 10:29 28,0 C 27,9 C 28,0 C 50 % 1022,5 hPa 0,0 l/m 0,0 km/h (0 Bft) N 0 1 min 3,9 UV-I 584 W/m 0,0 km/h (0 Bft)
23.07.2019 10:28 28,0 C 27,9 C 28,0 C 51 % 1022,5 hPa 0,0 l/m 0,0 km/h (0 Bft) N 0 1 min 3,9 UV-I 580 W/m 0,0 km/h (0 Bft)
23.07.2019 10:27 27,9 C 27,9 C 27,9 C 52 % 1022,6 hPa 0,0 l/m 0,0 km/h (0 Bft) N 0 1 min 3,9 UV-I 580 W/m 0,0 km/h (0 Bft)
23.07.2019 10:26 27,9 C 27,8 C 27,9 C 52 % 1022,5 hPa 0,0 l/m 0,0 km/h (0 Bft) N 0 1 min 3,8 UV-I 578 W/m 0,0 km/h (0 Bft)
23.07.2019 10:25 27,8 C 27,8 C 27,8 C 53 % 1022,5 hPa 0,0 l/m 0,0 km/h (0 Bft) N 0 1 min 3,8 UV-I 570 W/m 0,0 km/h (0 Bft)
23.07.2019 10:24 27,8 C 27,8 C 27,8 C 52 % 1022,5 hPa 0,0 l/m 0,0 km/h (0 Bft) N 0 1 min 3,8 UV-I 571 W/m 0,0 km/h (0 Bft)
23.07.2019 10:23 27,8 C 27,7 C 27,8 C 53 % 1022,6 hPa 0,0 l/m 0,0 km/h (0 Bft) N 0 1 min 3,7 UV-I 568 W/m 0,0 km/h (0 Bft)
23.07.2019 10:22 27,7 C 27,7 C 27,7 C 52 % 1022,5 hPa 0,0 l/m 0,0 km/h (0 Bft) N 0 1 min 3,7 UV-I 568 W/m 0,0 km/h (0 Bft)
23.07.2019 10:21 27,7 C 27,6 C 27,7 C 53 % 1022,5 hPa 0,0 l/m 0,0 km/h (0 Bft) N 0 1 min 3,7 UV-I 564 W/m 0,0 km/h (0 Bft)
23.07.2019 10:20 27,6 C 27,6 C 27,6 C 52 % 1022,6 hPa 0,0 l/m 0,0 km/h (0 Bft) N 0 1 min 3,7 UV-I 566 W/m 0,0 km/h (0 Bft)
23.07.2019 10:19 27,6 C 27,6 C 27,6 C 53 % 1022,6 hPa 0,0 l/m 0,0 km/h (0 Bft) N 0 1 min 3,7 UV-I 563 W/m 0,0 km/h (0 Bft)
23.07.2019 10:18 27,5 C 27,5 C 27,6 C 54 % 1022,6 hPa 0,0 l/m 0,0 km/h (0 Bft) N 0 1 min 3,6 UV-I 559 W/m 0,0 km/h (0 Bft)
23.07.2019 10:17 27,5 C 27,5 C 27,5 C 53 % 1022,6 hPa 0,0 l/m 0,0 km/h (0 Bft) N 0 1 min 3,6 UV-I 555 W/m 0,0 km/h (0 Bft)
23.07.2019 10:16 27,4 C 27,4 C 27,5 C 52 % 1022,7 hPa 0,0 l/m 0,0 km/h (0 Bft) N 0 1 min 3,6 UV-I 554 W/m 0,0 km/h (0 Bft)
23.07.2019 10:15 27,4 C 27,4 C 27,5 C 52 % 1022,7 hPa 0,0 l/m 0,0 km/h (0 Bft) N 0 1 min 3,5 UV-I 554 W/m 0,0 km/h (0 Bft)
23.07.2019 10:14 27,4 C 27,4 C 27,4 C 52 % 1022,7 hPa 0,0 l/m 0,0 km/h (0 Bft) N 0 1 min 3,5 UV-I 550 W/m 0,0 km/h (0 Bft)
23.07.2019 10:13 27,4 C 27,4 C 27,4 C 53 % 1022,6 hPa 0,0 l/m 0,0 km/h (0 Bft) N 0 1 min 3,5 UV-I 547 W/m 0,0 km/h (0 Bft)
23.07.2019 10:12 27,4 C 27,4 C 27,4 C 54 % 1022,7 hPa 0,0 l/m 0,0 km/h (0 Bft) N 0 1 min 3,5 UV-I 545 W/m 0,0 km/h (0 Bft)
23.07.2019 10:11 27,4 C 27,4 C 27,5 C 53 % 1022,7 hPa 0,0 l/m 0,0 km/h (0 Bft) N 0 1 min 3,5 UV-I 540 W/m 0,0 km/h (0 Bft)
23.07.2019 10:10 27,5 C 27,5 C 27,6 C 53 % 1022,7 hPa 0,0 l/m 0,0 km/h (0 Bft) N 0 1 min 3,4 UV-I 540 W/m 0,0 km/h (0 Bft)
23.07.2019 10:09 27,5 C 27,5 C 27,6 C 53 % 1022,7 hPa 0,0 l/m 0,0 km/h (0 Bft) N 0 1 min 3,4 UV-I 536 W/m 0,0 km/h (0 Bft)
23.07.2019 10:08 27,5 C 27,5 C 27,6 C 53 % 1022,7 hPa 0,0 l/m 0,0 km/h (0 Bft) N 0 1 min 3,4 UV-I 533 W/m 0,0 km/h (0 Bft)
23.07.2019 10:07 27,5 C 27,5 C 27,6 C 53 % 1022,7 hPa 0,0 l/m 0,0 km/h (0 Bft) N 0 1 min 3,4 UV-I 533 W/m 0,0 km/h (0 Bft)
23.07.2019 10:06 27,6 C 27,6 C 27,6 C 53 % 1022,7 hPa 0,0 l/m 0,0 km/h (0 Bft) N 0 1 min 3,3 UV-I 531 W/m 0,0 km/h (0 Bft)
23.07.2019 10:05 27,6 C 27,6 C 27,6 C 53 % 1022,7 hPa 0,0 l/m 0,0 km/h (0 Bft) N 0 1 min 3,3 UV-I 527 W/m 0,0 km/h (0 Bft)
23.07.2019 10:04 27,6 C 27,6 C 27,6 C 54 % 1022,8 hPa 0,0 l/m 0,0 km/h (0 Bft) N 0 1 min 3,3 UV-I 526 W/m 0,0 km/h (0 Bft)
23.07.2019 10:03 27,6 C 27,6 C 27,7 C 53 % 1022,8 hPa 0,0 l/m 0,0 km/h (0 Bft) N 0 1 min 3,2 UV-I 522 W/m 0,0 km/h (0 Bft)
23.07.2019 10:02 27,6 C 27,6 C 27,6 C 53 % 1022,7 hPa 0,0 l/m 0,0 km/h (0 Bft) N 0 1 min 3,2 UV-I 519 W/m 0,0 km/h (0 Bft)
23.07.2019 10:01 27,6 C 27,6 C 27,6 C 55 % 1022,8 hPa 0,0 l/m 0,0 km/h (0 Bft) N 0 1 min 3,2 UV-I 517 W/m 0,0 km/h (0 Bft)
23.07.2019 10:00 27,6 C 27,6 C 27,6 C 54 % 1022,7 hPa 0,0 l/m 0,0 km/h (0 Bft) N 0 1 min 3,2 UV-I 517 W/m 0,0 km/h (0 Bft)
23.07.2019 09:59 27,6 C 27,6 C 27,6 C 55 % 1022,8 hPa 0,0 l/m 0,0 km/h (0 Bft) N 0 1 min 3,2 UV-I 515 W/m 0,0 km/h (0 Bft)
23.07.2019 09:58 27,6 C 27,6 C 27,6 C 53 % 1022,8 hPa 0,0 l/m 0,0 km/h (0 Bft) N 0 1 min 3,2 UV-I 512 W/m 0,0 km/h (0 Bft)
23.07.2019 09:57 27,6 C 27,6 C 27,7 C 53 % 1022,7 hPa 0,0 l/m 0,0 km/h (0 Bft) N 0 1 min 3,1 UV-I 510 W/m 0,0 km/h (0 Bft)
23.07.2019 09:56 27,6 C 27,6 C 27,7 C 54 % 1022,7 hPa 0,0 l/m 0,0 km/h (0 Bft) N 0 1 min 3,1 UV-I 504 W/m 0,0 km/h (0 Bft)
23.07.2019 09:55 27,7 C 27,7 C 27,8 C 53 % 1022,8 hPa 0,0 l/m 0,0 km/h (0 Bft) N 0 1 min 3,1 UV-I 503 W/m 0,0 km/h (0 Bft)
23.07.2019 09:54 27,8 C 27,8 C 27,8 C 53 % 1022,7 hPa 0,0 l/m 0,0 km/h (0 Bft) N 0 1 min 3,1 UV-I 504 W/m 0,0 km/h (0 Bft)
23.07.2019 09:53 27,8 C 27,8 C 27,8 C 53 % 1022,7 hPa 0,0 l/m 0,0 km/h (0 Bft) N 0 1 min 3,1 UV-I 501 W/m 0,0 km/h (0 Bft)
23.07.2019 09:52 27,8 C 27,8 C 27,9 C 53 % 1022,7 hPa 0,0 l/m 0,0 km/h (0 Bft) N 0 1 min 3,0 UV-I 499 W/m 0,0 km/h (0 Bft)
23.07.2019 09:51 27,9 C 27,9 C 27,9 C 53 % 1022,7 hPa 0,0 l/m 0,0 km/h (0 Bft) N 0 1 min 3,0 UV-I 497 W/m 0,0 km/h (0 Bft)
23.07.2019 09:50 27,9 C 27,9 C 28,0 C 52 % 1022,8 hPa 0,0 l/m 0,0 km/h (0 Bft) N 0 1 min 3,0 UV-I 494 W/m 0,0 km/h (0 Bft)
23.07.2019 09:49 28,0 C 28,0 C 28,1 C 52 % 1022,7 hPa 0,0 l/m 0,0 km/h (0 Bft) N 0 1 min 3,0 UV-I 492 W/m 0,0 km/h (0 Bft)
23.07.2019 09:48 28,1 C 28,1 C 28,1 C 51 % 1022,7 hPa 0,0 l/m 0,0 km/h (0 Bft) N 0 1 min 2,9 UV-I 489 W/m 0,0 km/h (0 Bft)
23.07.2019 09:47 28,1 C 28,1 C 28,1 C 52 % 1022,7 hPa 0,0 l/m 0,0 km/h (0 Bft) N 0 1 min 2,9 UV-I 485 W/m 0,0 km/h (0 Bft)
23.07.2019 09:46 28,0 C 27,9 C 28,0 C 52 % 1022,7 hPa 0,0 l/m 0,0 km/h (0 Bft) N 0 1 min 2,9 UV-I 485 W/m 0,0 km/h (0 Bft)
23.07.2019 09:45 27,9 C 27,8 C 27,9 C 52 % 1022,7 hPa 0,0 l/m 0,0 km/h (0 Bft) N 0 1 min 2,9 UV-I 483 W/m 0,0 km/h (0 Bft)
23.07.2019 09:44 27,8 C 27,7 C 27,8 C 52 % 1022,7 hPa 0,0 l/m 0,0 km/h (0 Bft) N 0 1 min 2,8 UV-I 478 W/m 0,0 km/h (0 Bft)
23.07.2019 09:43 27,7 C 27,6 C 27,7 C 53 % 1022,6 hPa 0,0 l/m 0,0 km/h (0 Bft) N 0 1 min 2,8 UV-I 476 W/m 0,0 km/h (0 Bft)
23.07.2019 09:42 27,6 C 27,6 C 27,6 C 55 % 1022,6 hPa 0,0 l/m 0,0 km/h (0 Bft) N 0 1 min 2,8 UV-I 473 W/m 0,0 km/h (0 Bft)
23.07.2019 09:41 27,5 C 27,4 C 27,5 C 55 % 1022,6 hPa 0,0 l/m 0,0 km/h (0 Bft) N 0 1 min 2,8 UV-I 471 W/m 0,0 km/h (0 Bft)
23.07.2019 09:40 27,4 C 27,3 C 27,4 C 55 % 1022,7 hPa 0,0 l/m 0,0 km/h (0 Bft) N 0 1 min 2,7 UV-I 468 W/m 0,0 km/h (0 Bft)
23.07.2019 09:39 27,3 C 27,3 C 27,3 C 54 % 1022,7 hPa 0,0 l/m 0,0 km/h (0 Bft) N 0 1 min 2,7 UV-I 466 W/m 0,0 km/h (0 Bft)
23.07.2019 09:38 27,3 C 27,2 C 27,3 C 55 % 1022,7 hPa 0,0 l/m 0,0 km/h (0 Bft) N 0 1 min 2,7 UV-I 464 W/m 0,0 km/h (0 Bft)
23.07.2019 09:37 27,2 C 27,1 C 27,2 C 55 % 1022,6 hPa 0,0 l/m 0,0 km/h (0 Bft) N 0 1 min 2,7 UV-I 462 W/m 0,0 km/h (0 Bft)
23.07.2019 09:36 27,1 C 27,0 C 27,1 C 55 % 1022,7 hPa 0,0 l/m 0,0 km/h (0 Bft) N 0 1 min 2,7 UV-I 459 W/m 0,0 km/h (0 Bft)
23.07.2019 09:35 27,0 C 26,9 C 27,0 C 55 % 1022,7 hPa 0,0 l/m 0,0 km/h (0 Bft) N 0 1 min 2,6 UV-I 457 W/m 0,0 km/h (0 Bft)
23.07.2019 09:34 26,8 C 26,8 C 26,8 C 56 % 1022,6 hPa 0,0 l/m 0,0 km/h (0 Bft) N 0 1 min 2,6 UV-I 457 W/m 0,0 km/h (0 Bft)
23.07.2019 09:33 26,7 C 26,6 C 26,7 C 56 % 1022,7 hPa 0,0 l/m 0,0 km/h (0 Bft) N 0 1 min 2,6 UV-I 450 W/m 0,0 km/h (0 Bft)
23.07.2019 09:32 26,6 C 26,4 C 26,6 C 56 % 1022,7 hPa 0,0 l/m 0,0 km/h (0 Bft) N 0 1 min 2,6 UV-I 448 W/m 0,0 km/h (0 Bft)
23.07.2019 09:31 26,4 C 26,3 C 26,4 C 56 % 1022,7 hPa 0,0 l/m 0,0 km/h (0 Bft) N 0 1 min 2,5 UV-I 441 W/m 0,0 km/h (0 Bft)
23.07.2019 09:30 26,3 C 26,2 C 26,3 C 58 % 1022,6 hPa 0,0 l/m 0,0 km/h (0 Bft) N 0 1 min 2,5 UV-I 441 W/m 0,0 km/h (0 Bft)
23.07.2019 09:29 26,2 C 26,1 C 26,2 C 59 % 1022,6 hPa 0,0 l/m 0,0 km/h (0 Bft) N 0 1 min 2,5 UV-I 443 W/m 0,0 km/h (0 Bft)
23.07.2019 09:28 26,0 C 25,9 C 26,0 C 59 % 1022,7 hPa 0,0 l/m 0,0 km/h (0 Bft) N 0 1 min 2,5 UV-I 443 W/m 0,0 km/h (0 Bft)
23.07.2019 09:27 25,9 C 25,8 C 25,9 C 58 % 1022,6 hPa 0,0 l/m 0,0 km/h (0 Bft) N 0 1 min 2,5 UV-I 436 W/m 0,0 km/h (0 Bft)
23.07.2019 09:26 25,8 C 25,7 C 25,8 C 59 % 1022,6 hPa 0,0 l/m 0,0 km/h (0 Bft) N 0 1 min 2,4 UV-I 436 W/m 0,0 km/h (0 Bft)
23.07.2019 09:25 25,7 C 25,7 C 25,7 C 59 % 1022,7 hPa 0,0 l/m 0,0 km/h (0 Bft) N 0 1 min 2,4 UV-I 434 W/m 0,0 km/h (0 Bft)
23.07.2019 09:24 25,7 C 25,7 C 25,7 C 59 % 1022,7 hPa 0,0 l/m 0,0 km/h (0 Bft) N 0 1 min 2,4 UV-I 432 W/m 0,0 km/h (0 Bft)
23.07.2019 09:23 25,7 C 25,7 C 25,7 C 59 % 1022,7 hPa 0,0 l/m 0,0 km/h (0 Bft) N 0 1 min 2,4 UV-I 431 W/m 0,0 km/h (0 Bft)
23.07.2019 09:22 25,6 C 25,6 C 25,6 C 59 % 1022,7 hPa 0,0 l/m 0,0 km/h (0 Bft) N 0 1 min 2,4 UV-I 427 W/m 0,0 km/h (0 Bft)
23.07.2019 09:21 25,6 C 25,6 C 25,6 C 60 % 1022,8 hPa 0,0 l/m 0,0 km/h (0 Bft) N 0 1 min 2,4 UV-I 424 W/m 0,0 km/h (0 Bft)
23.07.2019 09:20 25,6 C 25,6 C 25,6 C 60 % 1022,8 hPa 0,0 l/m 0,0 km/h (0 Bft) N 0 1 min 2,3 UV-I 422 W/m 0,0 km/h (0 Bft)
23.07.2019 09:19 25,6 C 25,6 C 25,6 C 60 % 1022,7 hPa 0,0 l/m 0,0 km/h (0 Bft) N 0 1 min 2,3 UV-I 420 W/m 0,0 km/h (0 Bft)
23.07.2019 09:18 25,6 C 25,5 C 25,6 C 59 % 1022,7 hPa 0,0 l/m 0,0 km/h (0 Bft) N 0 1 min 2,3 UV-I 418 W/m 0,0 km/h (0 Bft)
23.07.2019 09:17 25,5 C 25,4 C 25,5 C 61 % 1022,7 hPa 0,0 l/m 0,0 km/h (0 Bft) N 0 1 min 2,3 UV-I 415 W/m 0,0 km/h (0 Bft)
23.07.2019 09:16 25,4 C 25,3 C 25,4 C 61 % 1022,7 hPa 0,0 l/m 0,0 km/h (0 Bft) N 0 1 min 2,3 UV-I 413 W/m 0,0 km/h (0 Bft)
23.07.2019 09:15 25,3 C 25,3 C 25,3 C 61 % 1022,7 hPa 0,0 l/m 0,0 km/h (0 Bft) N 0 1 min 2,2 UV-I 410 W/m 0,0 km/h (0 Bft)
23.07.2019 09:14 25,3 C 25,3 C 25,3 C 61 % 1022,6 hPa 0,0 l/m 0,0 km/h (0 Bft) N 0 1 min 2,2 UV-I 406 W/m 0,0 km/h (0 Bft)
23.07.2019 09:13 25,2 C 25,2 C 25,2 C 62 % 1022,7 hPa 0,0 l/m 0,0 km/h (0 Bft) N 0 1 min 2,2 UV-I 404 W/m 0,0 km/h (0 Bft)
23.07.2019 09:12 25,2 C 25,1 C 25,2 C 61 % 1022,7 hPa 0,0 l/m 0,0 km/h (0 Bft) N 0 1 min 2,2 UV-I 403 W/m 0,0 km/h (0 Bft)
23.07.2019 09:11 25,1 C 25,1 C 25,1 C 62 % 1022,6 hPa 0,0 l/m 0,0 km/h (0 Bft) N 0 1 min 2,2 UV-I 401 W/m 0,0 km/h (0 Bft)
23.07.2019 09:10 25,1 C 25,0 C 25,1 C 63 % 1022,7 hPa 0,0 l/m 0,0 km/h (0 Bft) N 0 1 min 2,1 UV-I 397 W/m 0,0 km/h (0 Bft)
23.07.2019 09:09 25,0 C 25,0 C 25,0 C 62 % 1022,7 hPa 0,0 l/m 0,0 km/h (0 Bft) N 0 1 min 2,1 UV-I 394 W/m 0,0 km/h (0 Bft)
23.07.2019 09:08 24,9 C 24,9 C 25,0 C 62 % 1022,7 hPa 0,0 l/m 0,0 km/h (0 Bft) N 0 1 min 2,1 UV-I 390 W/m 0,0 km/h (0 Bft)
23.07.2019 09:07 24,9 C 24,9 C 25,0 C 62 % 1022,7 hPa 0,0 l/m 0,0 km/h (0 Bft) N 0 1 min 2,1 UV-I 388 W/m 0,0 km/h (0 Bft)
23.07.2019 09:06 24,9 C 24,9 C 24,9 C 61 % 1022,7 hPa 0,0 l/m 0,0 km/h (0 Bft) N 0 1 min 2,1 UV-I 388 W/m 0,0 km/h (0 Bft)
23.07.2019 09:05 24,9 C 24,9 C 24,9 C 62 % 1022,7 hPa 0,0 l/m 0,0 km/h (0 Bft) N 0 1 min 2,1 UV-I 385 W/m 0,0 km/h (0 Bft)
23.07.2019 09:04 24,9 C 24,8 C 24,9 C 62 % 1022,7 hPa 0,0 l/m 0,0 km/h (0 Bft) N 0 1 min 2,0 UV-I 383 W/m 0,0 km/h (0 Bft)
23.07.2019 09:03 24,8 C 24,8 C 24,8 C 63 % 1022,7 hPa 0,0 l/m 0,0 km/h (0 Bft) N 0 1 min 2,0 UV-I 380 W/m 0,0 km/h (0 Bft)
23.07.2019 09:02 24,8 C 24,8 C 24,8 C 63 % 1022,7 hPa 0,0 l/m 0,0 km/h (0 Bft) N 0 1 min 2,0 UV-I 378 W/m 0,0 km/h (0 Bft)
23.07.2019 09:01 24,8 C 24,7 C 24,8 C 63 % 1022,8 hPa 0,0 l/m 0,0 km/h (0 Bft) N 0 1 min 2,0 UV-I 373 W/m 0,0 km/h (0 Bft)
23.07.2019 09:00 24,7 C 24,7 C 24,7 C 63 % 1022,7 hPa 0,0 l/m 0,0 km/h (0 Bft) N 0 1 min 2,0 UV-I 373 W/m 0,0 km/h (0 Bft)
23.07.2019 08:59 24,7 C 24,6 C 24,7 C 63 % 1022,7 hPa 0,0 l/m 0,0 km/h (0 Bft) N 0 1 min 1,9 UV-I 371 W/m 0,0 km/h (0 Bft)
23.07.2019 08:58 24,6 C 24,6 C 24,6 C 63 % 1022,8 hPa 0,0 l/m 0,0 km/h (0 Bft) N 0 1 min 1,9 UV-I 369 W/m 0,0 km/h (0 Bft)
23.07.2019 08:57 24,6 C 24,6 C 24,6 C 64 % 1022,7 hPa 0,0 l/m 0,0 km/h (0 Bft) N 0 1 min 1,9 UV-I 366 W/m 0,0 km/h (0 Bft)
23.07.2019 08:56 24,6 C 24,5 C 24,6 C 64 % 1022,7 hPa 0,0 l/m 0,0 km/h (0 Bft) N 0 1 min 1,9 UV-I 364 W/m 0,0 km/h (0 Bft)
23.07.2019 08:55 24,5 C 24,4 C 24,5 C 65 % 1022,7 hPa 0,0 l/m 0,0 km/h (0 Bft) N 0 1 min 1,9 UV-I 360 W/m 0,0 km/h (0 Bft)
23.07.2019 08:54 24,4 C 24,4 C 24,4 C 64 % 1022,7 hPa 0,0 l/m 0,0 km/h (0 Bft) N 0 1 min 1,9 UV-I 359 W/m 0,0 km/h (0 Bft)
23.07.2019 08:53 24,4 C 24,4 C 24,4 C 65 % 1022,7 hPa 0,0 l/m 0,0 km/h (0 Bft) N 0 1 min 1,8 UV-I 355 W/m 0,0 km/h (0 Bft)
23.07.2019 08:52 24,4 C 24,3 C 24,4 C 65 % 1022,6 hPa 0,0 l/m 0,0 km/h (0 Bft) N 0 1 min 1,8 UV-I 352 W/m 0,0 km/h (0 Bft)
23.07.2019 08:51 24,3 C 24,3 C 24,3 C 65 % 1022,7 hPa 0,0 l/m 0,0 km/h (0 Bft) N 0 1 min 1,8 UV-I 348 W/m 0,0 km/h (0 Bft)
23.07.2019 08:50 24,3 C 24,3 C 24,3 C 65 % 1022,7 hPa 0,0 l/m 0,0 km/h (0 Bft) N 0 1 min 1,8 UV-I 348 W/m 0,0 km/h (0 Bft)
23.07.2019 08:49 24,3 C 24,3 C 24,3 C 65 % 1022,6 hPa 0,0 l/m 0,0 km/h (0 Bft) N 0 1 min 1,8 UV-I 346 W/m 0,0 km/h (0 Bft)
23.07.2019 08:48 24,3 C 24,2 C 24,3 C 65 % 1022,6 hPa 0,0 l/m 0,0 km/h (0 Bft) N 0 1 min 1,7 UV-I 345 W/m 0,0 km/h (0 Bft)
23.07.2019 08:47 24,2 C 24,2 C 24,2 C 65 % 1022,6 hPa 0,0 l/m 0,0 km/h (0 Bft) N 0 1 min 1,7 UV-I 341 W/m 0,0 km/h (0 Bft)
23.07.2019 08:46 24,2 C 24,1 C 24,2 C 67 % 1022,6 hPa 0,0 l/m 0,0 km/h (0 Bft) N 0 1 min 1,7 UV-I 338 W/m 0,0 km/h (0 Bft)
23.07.2019 08:45 24,1 C 24,1 C 24,1 C 66 % 1022,6 hPa 0,0 l/m 0,0 km/h (0 Bft) N 0 1 min 1,7 UV-I 334 W/m 0,0 km/h (0 Bft)
23.07.2019 08:44 24,1 C 24,0 C 24,1 C 66 % 1022,7 hPa 0,0 l/m 0,0 km/h (0 Bft) N 0 1 min 1,7 UV-I 332 W/m 0,0 km/h (0 Bft)
23.07.2019 08:43 24,0 C 23,9 C 24,0 C 68 % 1022,6 hPa 0,0 l/m 0,0 km/h (0 Bft) N 0 1 min 1,6 UV-I 330 W/m 0,0 km/h (0 Bft)
23.07.2019 08:42 23,9 C 23,9 C 23,9 C 68 % 1022,7 hPa 0,0 l/m 0,0 km/h (0 Bft) N 0 1 min 1,6 UV-I 327 W/m 0,0 km/h (0 Bft)
23.07.2019 08:41 23,9 C 23,8 C 23,9 C 67 % 1022,7 hPa 0,0 l/m 0,0 km/h (0 Bft) N 0 1 min 1,6 UV-I 325 W/m 0,0 km/h (0 Bft)
23.07.2019 08:40 23,8 C 23,8 C 23,8 C 67 % 1022,7 hPa 0,0 l/m 0,0 km/h (0 Bft) N 0 1 min 1,6 UV-I 320 W/m 0,0 km/h (0 Bft)
23.07.2019 08:39 23,8 C 23,7 C 23,8 C 67 % 1022,7 hPa 0,0 l/m 0,0 km/h (0 Bft) N 0 1 min 1,6 UV-I 320 W/m 0,0 km/h (0 Bft)
23.07.2019 08:38 23,7 C 23,7 C 23,7 C 67 % 1022,7 hPa 0,0 l/m 0,0 km/h (0 Bft) N 0 1 min 1,6 UV-I 315 W/m 0,0 km/h (0 Bft)
23.07.2019 08:37 23,7 C 23,7 C 23,7 C 67 % 1022,8 hPa 0,0 l/m 0,0 km/h (0 Bft) N 0 1 min 1,5 UV-I 315 W/m 0,0 km/h (0 Bft)
23.07.2019 08:36 23,7 C 23,7 C 23,7 C 67 % 1022,7 hPa 0,0 l/m 0,0 km/h (0 Bft) N 0 1 min 1,5 UV-I 313 W/m 0,0 km/h (0 Bft)
23.07.2019 08:35 23,7 C 23,6 C 23,7 C 67 % 1022,7 hPa 0,0 l/m 0,0 km/h (0 Bft) N 0 1 min 1,5 UV-I 311 W/m 0,0 km/h (0 Bft)
23.07.2019 08:34 23,6 C 23,6 C 23,6 C 67 % 1022,7 hPa 0,0 l/m 0,0 km/h (0 Bft) N 0 1 min 1,5 UV-I 308 W/m 0,0 km/h (0 Bft)
23.07.2019 08:33 23,6 C 23,6 C 23,6 C 67 % 1022,7 hPa 0,0 l/m 0,0 km/h (0 Bft) N 0 1 min 1,5 UV-I 304 W/m 0,0 km/h (0 Bft)
23.07.2019 08:32 23,6 C 23,5 C 23,6 C 69 % 1022,7 hPa 0,0 l/m 0,0 km/h (0 Bft) N 0 1 min 1,4 UV-I 302 W/m 0,0 km/h (0 Bft)
23.07.2019 08:31 23,4 C 23,4 C 23,4 C 68 % 1022,8 hPa 0,0 l/m 0,0 km/h (0 Bft) N 0 1 min 1,4 UV-I 301 W/m 0,0 km/h (0 Bft)
23.07.2019 08:30 23,4 C 23,4 C 23,4 C 68 % 1022,8 hPa 0,0 l/m 0,0 km/h (0 Bft) N 0 1 min 1,4 UV-I 299 W/m 0,0 km/h (0 Bft)
23.07.2019 08:29 23,4 C 23,3 C 23,4 C 68 % 1022,8 hPa 0,0 l/m 0,0 km/h (0 Bft) N 0 1 min 1,4 UV-I 295 W/m 0,0 km/h (0 Bft)
23.07.2019 08:28 23,3 C 23,3 C 23,3 C 68 % 1022,7 hPa 0,0 l/m 0,0 km/h (0 Bft) N 0 1 min 1,4 UV-I 292 W/m 0,0 km/h (0 Bft)
23.07.2019 08:27 23,3 C 23,3 C 23,3 C 68 % 1022,8 hPa 0,0 l/m 0,0 km/h (0 Bft) N 0 1 min 1,4 UV-I 288 W/m 0,0 km/h (0 Bft)
23.07.2019 08:26 23,3 C 23,3 C 23,3 C 68 % 1022,8 hPa 0,0 l/m 0,0 km/h (0 Bft) N 0 1 min 1,3 UV-I 285 W/m 0,0 km/h (0 Bft)
23.07.2019 08:25 23,3 C 23,3 C 23,3 C 68 % 1022,8 hPa 0,0 l/m 0,0 km/h (0 Bft) N 0 1 min 1,3 UV-I 285 W/m 0,0 km/h (0 Bft)
23.07.2019 08:24 23,3 C 23,2 C 23,3 C 68 % 1022,8 hPa 0,0 l/m 0,0 km/h (0 Bft) N 0 1 min 1,3 UV-I 283 W/m 0,0 km/h (0 Bft)
23.07.2019 08:23 23,2 C 23,2 C 23,2 C 68 % 1022,8 hPa 0,0 l/m 0,0 km/h (0 Bft) N 0 1 min 1,3 UV-I 281 W/m 0,0 km/h (0 Bft)
23.07.2019 08:22 23,2 C 23,1 C 23,2 C 68 % 1022,8 hPa 0,0 l/m 0,0 km/h (0 Bft) N 0 1 min 1,3 UV-I 276 W/m 0,0 km/h (0 Bft)
23.07.2019 08:21 23,1 C 23,1 C 23,1 C 68 % 1022,8 hPa 0,0 l/m 0,0 km/h (0 Bft) N 0 1 min 1,3 UV-I 274 W/m 0,0 km/h (0 Bft)
23.07.2019 08:20 23,0 C 23,0 C 23,0 C 69 % 1022,9 hPa 0,0 l/m 0,0 km/h (0 Bft) N 0 1 min 1,3 UV-I 269 W/m 0,0 km/h (0 Bft)
23.07.2019 08:19 22,9 C 22,9 C 22,9 C 69 % 1022,9 hPa 0,0 l/m 0,0 km/h (0 Bft) N 0 1 min 1,2 UV-I 269 W/m 0,0 km/h (0 Bft)
23.07.2019 08:18 22,9 C 22,9 C 22,9 C 70 % 1022,8 hPa 0,0 l/m 0,0 km/h (0 Bft) N 0 1 min 1,2 UV-I 267 W/m 0,0 km/h (0 Bft)
23.07.2019 08:17 22,9 C 22,8 C 22,9 C 70 % 1022,9 hPa 0,0 l/m 0,0 km/h (0 Bft) N 0 1 min 1,2 UV-I 265 W/m 0,0 km/h (0 Bft)
23.07.2019 08:16 22,8 C 22,8 C 22,8 C 69 % 1022,8 hPa 0,0 l/m 0,0 km/h (0 Bft) N 0 1 min 1,2 UV-I 260 W/m 0,0 km/h (0 Bft)
23.07.2019 08:15 22,8 C 22,8 C 22,8 C 69 % 1022,9 hPa 0,0 l/m 0,0 km/h (0 Bft) N 0 1 min 1,2 UV-I 258 W/m 0,0 km/h (0 Bft)
23.07.2019 08:14 22,8 C 22,7 C 22,8 C 69 % 1022,9 hPa 0,0 l/m 0,0 km/h (0 Bft) N 0 1 min 1,2 UV-I 257 W/m 0,0 km/h (0 Bft)
23.07.2019 08:13 22,8 C 22,7 C 22,8 C 69 % 1022,9 hPa 0,0 l/m 0,0 km/h (0 Bft) N 0 1 min 1,1 UV-I 255 W/m 0,0 km/h (0 Bft)
23.07.2019 08:12 22,8 C 22,7 C 22,8 C 68 % 1023,0 hPa 0,0 l/m 0,0 km/h (0 Bft) N 0 1 min 1,1 UV-I 251 W/m 0,0 km/h (0 Bft)
23.07.2019 08:11 22,8 C 22,7 C 22,8 C 68 % 1022,9 hPa 0,0 l/m 0,0 km/h (0 Bft) N 0 1 min 1,1 UV-I 246 W/m 0,0 km/h (0 Bft)
23.07.2019 08:10 22,8 C 22,7 C 22,8 C 68 % 1023,0 hPa 0,0 l/m 0,0 km/h (0 Bft) N 0 1 min 1,1 UV-I 244 W/m 0,0 km/h (0 Bft)
23.07.2019 08:09 22,8 C 22,7 C 22,8 C 69 % 1023,0 hPa 0,0 l/m 0,0 km/h (0 Bft) N 0 1 min 1,1 UV-I 243 W/m 0,0 km/h (0 Bft)
23.07.2019 08:08 22,8 C 22,7 C 22,8 C 69 % 1022,9 hPa 0,0 l/m 0,0 km/h (0 Bft) N 0 1 min 1,1 UV-I 239 W/m 0,0 km/h (0 Bft)
23.07.2019 08:07 22,8 C 22,7 C 22,8 C 69 % 1023,0 hPa 0,0 l/m 0,0 km/h (0 Bft) N 0 1 min 1,1 UV-I 239 W/m 0,0 km/h (0 Bft)
23.07.2019 08:06 22,7 C 22,7 C 22,7 C 69 % 1023,0 hPa 0,0 l/m 0,0 km/h (0 Bft) N 0 1 min 1,0 UV-I 237 W/m 0,0 km/h (0 Bft)
23.07.2019 08:05 22,7 C 22,7 C 22,7 C 69 % 1023,0 hPa 0,0 l/m 0,0 km/h (0 Bft) N 0 1 min 1,0 UV-I 232 W/m 0,0 km/h (0 Bft)
23.07.2019 08:04 22,7 C 22,6 C 22,7 C 69 % 1023,0 hPa 0,0 l/m 0,0 km/h (0 Bft) N 0 1 min 1,0 UV-I 230 W/m 0,0 km/h (0 Bft)
23.07.2019 08:03 22,7 C 22,6 C 22,7 C 69 % 1022,9 hPa 0,0 l/m 0,0 km/h (0 Bft) N 0 1 min 1,0 UV-I 229 W/m 0,0 km/h (0 Bft)
23.07.2019 08:02 22,6 C 22,6 C 22,6 C 69 % 1023,0 hPa 0,0 l/m 0,0 km/h (0 Bft) N 0 1 min 1,0 UV-I 227 W/m 0,0 km/h (0 Bft)
23.07.2019 08:01 22,6 C 22,5 C 22,6 C 70 % 1022,9 hPa 0,0 l/m 0,0 km/h (0 Bft) N 0 1 min 1,0 UV-I 225 W/m 0,0 km/h (0 Bft)
23.07.2019 08:00 22,5 C 22,4 C 22,5 C 70 % 1022,9 hPa 0,0 l/m 0,0 km/h (0 Bft) N 0 1 min 0,9 UV-I 221 W/m 0,0 km/h (0 Bft)
23.07.2019 07:59 22,4 C 22,3 C 22,4 C 70 % 1022,9 hPa 0,0 l/m 0,0 km/h (0 Bft) N 0 1 min 0,9 UV-I 218 W/m 0,0 km/h (0 Bft)
23.07.2019 07:58 22,3 C 22,3 C 22,3 C 70 % 1023,0 hPa 0,0 l/m 0,0 km/h (0 Bft) N 0 1 min 0,9 UV-I 216 W/m 0,0 km/h (0 Bft)
23.07.2019 07:57 22,3 C 22,2 C 22,3 C 70 % 1022,9 hPa 0,0 l/m 0,0 km/h (0 Bft) N 0 1 min 0,9 UV-I 213 W/m 0,0 km/h (0 Bft)
23.07.2019 07:56 22,2 C 22,2 C 22,2 C 70 % 1022,9 hPa 0,0 l/m 0,0 km/h (0 Bft) N 0 1 min 0,9 UV-I 213 W/m 0,0 km/h (0 Bft)
23.07.2019 07:55 22,2 C 22,2 C 22,2 C 70 % 1022,9 hPa 0,0 l/m 0,0 km/h (0 Bft) N 0 1 min 0,9 UV-I 209 W/m 0,0 km/h (0 Bft)
23.07.2019 07:54 22,2 C 22,1 C 22,2 C 71 % 1022,9 hPa 0,0 l/m 0,0 km/h (0 Bft) N 0 1 min 0,9 UV-I 207 W/m 0,0 km/h (0 Bft)
23.07.2019 07:53 22,1 C 22,1 C 22,1 C 70 % 1022,9 hPa 0,0 l/m 0,0 km/h (0 Bft) N 0 1 min 0,9 UV-I 204 W/m 0,0 km/h (0 Bft)
23.07.2019 07:52 22,1 C 22,1 C 22,1 C 70 % 1022,9 hPa 0,0 l/m 0,0 km/h (0 Bft) N 0 1 min 0,8 UV-I 202 W/m 0,0 km/h (0 Bft)
23.07.2019 07:51 22,1 C 22,0 C 22,1 C 70 % 1022,9 hPa 0,0 l/m 0,0 km/h (0 Bft) N 0 1 min 0,8 UV-I 199 W/m 0,0 km/h (0 Bft)
23.07.2019 07:50 22,1 C 22,0 C 22,1 C 70 % 1023,0 hPa 0,0 l/m 0,0 km/h (0 Bft) N 0 1 min 0,8 UV-I 197 W/m 0,0 km/h (0 Bft)
23.07.2019 07:49 21,9 C 21,9 C 22,0 C 70 % 1023,0 hPa 0,0 l/m 0,0 km/h (0 Bft) N 0 1 min 0,8 UV-I 195 W/m 0,0 km/h (0 Bft)
23.07.2019 07:48 21,9 C 21,9 C 21,9 C 70 % 1023,0 hPa 0,0 l/m 0,0 km/h (0 Bft) N 0 1 min 0,8 UV-I 192 W/m 0,0 km/h (0 Bft)
23.07.2019 07:47 21,9 C 21,9 C 21,9 C 71 % 1023,0 hPa 0,0 l/m 0,0 km/h (0 Bft) N 0 1 min 0,8 UV-I 188 W/m 0,0 km/h (0 Bft)
23.07.2019 07:46 21,9 C 21,8 C 21,9 C 71 % 1023,0 hPa 0,0 l/m 0,0 km/h (0 Bft) N 0 1 min 0,8 UV-I 185 W/m 0,0 km/h (0 Bft)
23.07.2019 07:45 21,8 C 21,8 C 21,8 C 71 % 1023,0 hPa 0,0 l/m 0,0 km/h (0 Bft) N 0 1 min 0,8 UV-I 183 W/m 0,0 km/h (0 Bft)
23.07.2019 07:44 21,8 C 21,7 C 21,8 C 71 % 1023,0 hPa 0,0 l/m 0,0 km/h (0 Bft) N 0 1 min 0,7 UV-I 179 W/m 0,0 km/h (0 Bft)
23.07.2019 07:43 21,7 C 21,6 C 21,7 C 72 % 1022,9 hPa 0,0 l/m 0,0 km/h (0 Bft) N 0 1 min 0,7 UV-I 178 W/m 0,0 km/h (0 Bft)
23.07.2019 07:42 21,6 C 21,6 C 21,6 C 72 % 1022,9 hPa 0,0 l/m 0,0 km/h (0 Bft) N 0 1 min 0,7 UV-I 174 W/m 0,0 km/h (0 Bft)
23.07.2019 07:41 21,5 C 21,4 C 21,5 C 73 % 1022,9 hPa 0,0 l/m 0,0 km/h (0 Bft) N 0 1 min 0,7 UV-I 169 W/m 0,0 km/h (0 Bft)
23.07.2019 07:40 21,4 C 21,3 C 21,4 C 72 % 1022,9 hPa 0,0 l/m 0,0 km/h (0 Bft) N 0 1 min 0,7 UV-I 167 W/m 0,0 km/h (0 Bft)
23.07.2019 07:39 21,3 C 21,3 C 21,3 C 73 % 1022,9 hPa 0,0 l/m 0,0 km/h (0 Bft) N 0 1 min 0,7 UV-I 163 W/m 0,0 km/h (0 Bft)
23.07.2019 07:38 21,3 C 21,2 C 21,3 C 74 % 1022,9 hPa 0,0 l/m 0,0 km/h (0 Bft) N 0 1 min 0,7 UV-I 162 W/m 0,0 km/h (0 Bft)
23.07.2019 07:37 21,2 C 21,1 C 21,2 C 74 % 1023,0 hPa 0,0 l/m 0,0 km/h (0 Bft) N 0 1 min 0,7 UV-I 160 W/m 0,0 km/h (0 Bft)
23.07.2019 07:36 21,1 C 21,0 C 21,1 C 74 % 1022,9 hPa 0,0 l/m 0,0 km/h (0 Bft) N 0 1 min 0,6 UV-I 156 W/m 0,0 km/h (0 Bft)
23.07.2019 07:35 21,0 C 20,9 C 21,0 C 74 % 1022,9 hPa 0,0 l/m 0,0 km/h (0 Bft) N 0 1 min 0,6 UV-I 153 W/m 0,0 km/h (0 Bft)
23.07.2019 07:34 20,9 C 20,8 C 20,9 C 74 % 1023,0 hPa 0,0 l/m 0,0 km/h (0 Bft) N 0 1 min 0,6 UV-I 149 W/m 0,0 km/h (0 Bft)
23.07.2019 07:33 20,8 C 20,8 C 20,8 C 74 % 1022,9 hPa 0,0 l/m 0,0 km/h (0 Bft) N 0 1 min 0,6 UV-I 148 W/m 0,0 km/h (0 Bft)
23.07.2019 07:32 20,8 C 20,7 C 20,8 C 74 % 1022,9 hPa 0,0 l/m 0,0 km/h (0 Bft) N 0 1 min 0,6 UV-I 144 W/m 0,0 km/h (0 Bft)
23.07.2019 07:31 20,7 C 20,6 C 20,7 C 74 % 1022,9 hPa 0,0 l/m 0,0 km/h (0 Bft) N 0 1 min 0,6 UV-I 142 W/m 0,0 km/h (0 Bft)
23.07.2019 07:30 20,6 C 20,6 C 20,6 C 75 % 1022,8 hPa 0,0 l/m 0,0 km/h (0 Bft) N 0 1 min 0,6 UV-I 137 W/m 0,0 km/h (0 Bft)
23.07.2019 07:29 20,5 C 20,5 C 20,6 C 75 % 1022,9 hPa 0,0 l/m 0,0 km/h (0 Bft) N 0 1 min 0,6 UV-I 135 W/m 0,0 km/h (0 Bft)
23.07.2019 07:28 20,5 C 20,4 C 20,5 C 75 % 1022,8 hPa 0,0 l/m 0,0 km/h (0 Bft) N 0 1 min 0,6 UV-I 132 W/m 0,0 km/h (0 Bft)
23.07.2019 07:27 20,4 C 20,4 C 20,4 C 76 % 1022,8 hPa 0,0 l/m 0,0 km/h (0 Bft) N 0 1 min 0,6 UV-I 130 W/m 0,0 km/h (0 Bft)
23.07.2019 07:26 20,4 C 20,3 C 20,4 C 76 % 1022,8 hPa 0,0 l/m 0,0 km/h (0 Bft) N 0 1 min 0,5 UV-I 128 W/m 0,0 km/h (0 Bft)
23.07.2019 07:25 20,3 C 20,2 C 20,3 C 76 % 1022,9 hPa 0,0 l/m 0,0 km/h (0 Bft) N 0 0 min 0,5 UV-I 125 W/m 0,0 km/h (0 Bft)
23.07.2019 07:24 20,2 C 20,2 C 20,2 C 76 % 1022,9 hPa 0,0 l/m 0,0 km/h (0 Bft) N 0 0 min 0,5 UV-I 121 W/m 0,0 km/h (0 Bft)
23.07.2019 07:23 20,2 C 20,1 C 20,2 C 77 % 1022,9 hPa 0,0 l/m 0,0 km/h (0 Bft) N 0 0 min 0,5 UV-I 120 W/m 0,0 km/h (0 Bft)
23.07.2019 07:22 20,1 C 20,1 C 20,1 C 77 % 1023,0 hPa 0,0 l/m 0,0 km/h (0 Bft) N 0 0 min 0,5 UV-I 118 W/m 0,0 km/h (0 Bft)
23.07.2019 07:21 20,1 C 19,9 C 20,1 C 77 % 1022,9 hPa 0,0 l/m 0,0 km/h (0 Bft) N 0 0 min 0,5 UV-I 113 W/m 0,0 km/h (0 Bft)
23.07.2019 07:20 19,9 C 19,9 C 19,9 C 77 % 1023,0 hPa 0,0 l/m 0,0 km/h (0 Bft) N 0 0 min 0,5 UV-I 113 W/m 0,0 km/h (0 Bft)
23.07.2019 07:19 19,9 C 19,9 C 19,9 C 78 % 1022,9 hPa 0,0 l/m 0,0 km/h (0 Bft) N 0 0 min 0,5 UV-I 111 W/m 0,0 km/h (0 Bft)
23.07.2019 07:18 19,8 C 19,8 C 19,8 C 78 % 1022,9 hPa 0,0 l/m 0,0 km/h (0 Bft) N 0 0 min 0,5 UV-I 105 W/m 0,0 km/h (0 Bft)
23.07.2019 07:17 19,8 C 19,8 C 19,8 C 78 % 1023,0 hPa 0,0 l/m 0,0 km/h (0 Bft) N 0 0 min 0,5 UV-I 104 W/m 0,0 km/h (0 Bft)
23.07.2019 07:16 19,8 C 19,7 C 19,8 C 78 % 1022,9 hPa 0,0 l/m 0,0 km/h (0 Bft) N 0 0 min 0,5 UV-I 102 W/m 0,0 km/h (0 Bft)
23.07.2019 07:15 19,7 C 19,7 C 19,7 C 78 % 1022,9 hPa 0,0 l/m 0,0 km/h (0 Bft) N 0 0 min 0,0 UV-I 100 W/m 0,0 km/h (0 Bft)
23.07.2019 07:14 19,6 C 19,6 C 19,6 C 78 % 1023,0 hPa 0,0 l/m 0,0 km/h (0 Bft) N 0 0 min 0,0 UV-I 98 W/m 0,0 km/h (0 Bft)
23.07.2019 07:13 19,6 C 19,5 C 19,6 C 78 % 1022,9 hPa 0,0 l/m 0,0 km/h (0 Bft) N 0 0 min 0,0 UV-I 95 W/m 0,0 km/h (0 Bft)
23.07.2019 07:12 19,5 C 19,4 C 19,5 C 78 % 1022,9 hPa 0,0 l/m 0,0 km/h (0 Bft) N 0 0 min 0,0 UV-I 91 W/m 0,0 km/h (0 Bft)
23.07.2019 07:11 19,4 C 19,3 C 19,4 C 78 % 1022,9 hPa 0,0 l/m 0,0 km/h (0 Bft) N 0 0 min 0,0 UV-I 90 W/m 0,0 km/h (0 Bft)
23.07.2019 07:10 19,3 C 19,3 C 19,3 C 79 % 1023,0 hPa 0,0 l/m 0,0 km/h (0 Bft) N 0 0 min 0,0 UV-I 88 W/m 0,0 km/h (0 Bft)
23.07.2019 07:09 19,3 C 19,3 C 19,3 C 79 % 1022,9 hPa 0,0 l/m 0,0 km/h (0 Bft) N 0 0 min 0,0 UV-I 86 W/m 0,0 km/h (0 Bft)
23.07.2019 07:08 19,2 C 19,2 C 19,2 C 79 % 1023,0 hPa 0,0 l/m 0,0 km/h (0 Bft) N 0 0 min 0,0 UV-I 84 W/m 0,0 km/h (0 Bft)
23.07.2019 07:07 19,2 C 19,1 C 19,2 C 80 % 1023,0 hPa 0,0 l/m 0,0 km/h (0 Bft) N 0 0 min 0,0 UV-I 83 W/m 0,0 km/h (0 Bft)
23.07.2019 07:06 19,1 C 19,1 C 19,1 C 80 % 1022,9 hPa 0,0 l/m 0,0 km/h (0 Bft) N 0 0 min 0,0 UV-I 76 W/m 0,0 km/h (0 Bft)
23.07.2019 07:05 19,0 C 18,9 C 19,0 C 80 % 1023,0 hPa 0,0 l/m 0,0 km/h (0 Bft) N 0 0 min 0,0 UV-I 76 W/m 0,0 km/h (0 Bft)
23.07.2019 07:04 18,9 C 18,9 C 18,9 C 80 % 1023,0 hPa 0,0 l/m 0,0 km/h (0 Bft) N 0 0 min 0,0 UV-I 74 W/m 0,0 km/h (0 Bft)
23.07.2019 07:03 18,9 C 18,8 C 18,9 C 80 % 1022,9 hPa 0,0 l/m 0,0 km/h (0 Bft) N 0 0 min 0,0 UV-I 72 W/m 0,0 km/h (0 Bft)
23.07.2019 07:02 18,8 C 18,8 C 18,8 C 80 % 1023,0 hPa 0,0 l/m 0,0 km/h (0 Bft) N 0 0 min 0,0 UV-I 70 W/m 0,0 km/h (0 Bft)
23.07.2019 07:01 18,8 C 18,7 C 18,8 C 80 % 1022,9 hPa 0,0 l/m 0,0 km/h (0 Bft) N 0 0 min 0,0 UV-I 67 W/m 0,0 km/h (0 Bft)
23.07.2019 07:00 18,7 C 18,7 C 18,7 C 80 % 1023,0 hPa 0,0 l/m 0,0 km/h (0 Bft) N 0 0 min 0,0 UV-I 63 W/m 0,0 km/h (0 Bft)
23.07.2019 06:59 18,7 C 18,6 C 18,7 C 80 % 1022,9 hPa 0,0 l/m 0,0 km/h (0 Bft) N 0 0 min 0,0 UV-I 62 W/m 0,0 km/h (0 Bft)
23.07.2019 06:58 18,6 C 18,6 C 18,6 C 81 % 1022,9 hPa 0,0 l/m 0,0 km/h (0 Bft) N 0 0 min 0,0 UV-I 60 W/m 0,0 km/h (0 Bft)
23.07.2019 06:57 18,6 C 18,4 C 18,6 C 81 % 1022,9 hPa 0,0 l/m 0,0 km/h (0 Bft) N 0 0 min 0,0 UV-I 58 W/m 0,0 km/h (0 Bft)
23.07.2019 06:56 18,4 C 18,4 C 18,4 C 81 % 1022,9 hPa 0,0 l/m 0,0 km/h (0 Bft) N 0 0 min 0,0 UV-I 56 W/m 0,0 km/h (0 Bft)
23.07.2019 06:55 18,4 C 18,3 C 18,4 C 81 % 1022,9 hPa 0,0 l/m 0,0 km/h (0 Bft) N 0 0 min 0,0 UV-I 54 W/m 0,0 km/h (0 Bft)
23.07.2019 06:54 18,4 C 18,3 C 18,4 C 81 % 1023,0 hPa 0,0 l/m 0,0 km/h (0 Bft) N 0 0 min 0,0 UV-I 51 W/m 0,0 km/h (0 Bft)
23.07.2019 06:53 18,3 C 18,3 C 18,3 C 81 % 1023,0 hPa 0,0 l/m 0,0 km/h (0 Bft) N 0 0 min 0,0 UV-I 49 W/m 0,0 km/h (0 Bft)
23.07.2019 06:52 18,3 C 18,2 C 18,3 C 81 % 1022,9 hPa 0,0 l/m 0,0 km/h (0 Bft) N 0 0 min 0,0 UV-I 49 W/m 0,0 km/h (0 Bft)
23.07.2019 06:51 18,2 C 18,2 C 18,2 C 81 % 1023,0 hPa 0,0 l/m 0,0 km/h (0 Bft) N 0 0 min 0,0 UV-I 47 W/m 0,0 km/h (0 Bft)
23.07.2019 06:50 18,2 C 18,2 C 18,2 C 81 % 1023,0 hPa 0,0 l/m 0,0 km/h (0 Bft) N 0 0 min 0,0 UV-I 46 W/m 0,0 km/h (0 Bft)
23.07.2019 06:49 18,2 C 18,2 C 18,2 C 81 % 1022,9 hPa 0,0 l/m 0,0 km/h (0 Bft) N 0 0 min 0,0 UV-I 42 W/m 0,0 km/h (0 Bft)
23.07.2019 06:48 18,2 C 18,1 C 18,2 C 81 % 1023,0 hPa 0,0 l/m 0,0 km/h (0 Bft) N 0 0 min 0,0 UV-I 42 W/m 0,0 km/h (0 Bft)
23.07.2019 06:47 18,1 C 18,1 C 18,2 C 81 % 1023,0 hPa 0,0 l/m 0,0 km/h (0 Bft) N 0 0 min 0,0 UV-I 40 W/m 0,0 km/h (0 Bft)
23.07.2019 06:46 18,1 C 18,1 C 18,1 C 81 % 1023,1 hPa 0,0 l/m 0,0 km/h (0 Bft) N 0 0 min 0,0 UV-I 37 W/m 0,0 km/h (0 Bft)
23.07.2019 06:45 18,1 C 18,1 C 18,2 C 81 % 1023,0 hPa 0,0 l/m 0,0 km/h (0 Bft) N 0 0 min 0,0 UV-I 37 W/m 0,0 km/h (0 Bft)
23.07.2019 06:44 18,1 C 18,1 C 18,1 C 81 % 1023,0 hPa 0,0 l/m 0,0 km/h (0 Bft) N 0 0 min 0,0 UV-I 32 W/m 0,0 km/h (0 Bft)
23.07.2019 06:43 18,1 C 18,1 C 18,1 C 81 % 1023,0 hPa 0,0 l/m 0,0 km/h (0 Bft) N 0 0 min 0,0 UV-I 23 W/m 0,0 km/h (0 Bft)
23.07.2019 06:42 18,1 C 18,1 C 18,1 C 81 % 1023,0 hPa 0,0 l/m 0,0 km/h (0 Bft) N 0 0 min 0,0 UV-I 21 W/m 0,0 km/h (0 Bft)
23.07.2019 06:41 18,1 C 18,1 C 18,1 C 81 % 1023,0 hPa 0,0 l/m 0,0 km/h (0 Bft) N 0 0 min 0,0 UV-I 21 W/m 0,0 km/h (0 Bft)
23.07.2019 06:40 18,1 C 18,1 C 18,1 C 81 % 1023,0 hPa 0,0 l/m 0,0 km/h (0 Bft) N 0 0 min 0,0 UV-I 21 W/m 0,0 km/h (0 Bft)
23.07.2019 06:39 18,1 C 18,1 C 18,1 C 81 % 1023,0 hPa 0,0 l/m 0,0 km/h (0 Bft) N 0 0 min 0,0 UV-I 21 W/m 0,0 km/h (0 Bft)
23.07.2019 06:38 18,1 C 18,1 C 18,1 C 81 % 1023,0 hPa 0,0 l/m 0,0 km/h (0 Bft) N 0 0 min 0,0 UV-I 19 W/m 0,0 km/h (0 Bft)
23.07.2019 06:37 18,1 C 18,1 C 18,1 C 81 % 1023,0 hPa 0,0 l/m 0,0 km/h (0 Bft) N 0 0 min 0,0 UV-I 19 W/m 0,0 km/h (0 Bft)
23.07.2019 06:36 18,1 C 18,1 C 18,1 C 81 % 1023,0 hPa 0,0 l/m 0,0 km/h (0 Bft) N 0 0 min 0,0 UV-I 19 W/m 0,0 km/h (0 Bft)
23.07.2019 06:35 18,1 C 18,1 C 18,1 C 81 % 1023,1 hPa 0,0 l/m 0,0 km/h (0 Bft) N 0 0 min 0,0 UV-I 19 W/m 0,0 km/h (0 Bft)
23.07.2019 06:34 18,1 C 18,1 C 18,1 C 81 % 1023,0 hPa 0,0 l/m 0,0 km/h (0 Bft) N 0 0 min 0,0 UV-I 19 W/m 0,0 km/h (0 Bft)
23.07.2019 06:33 18,1 C 18,1 C 18,1 C 80 % 1023,0 hPa 0,0 l/m 0,0 km/h (0 Bft) N 0 0 min 0,0 UV-I 18 W/m 0,0 km/h (0 Bft)
23.07.2019 06:32 18,1 C 18,1 C 18,1 C 80 % 1022,9 hPa 0,0 l/m 0,0 km/h (0 Bft) N 0 0 min 0,0 UV-I 18 W/m 0,0 km/h (0 Bft)
23.07.2019 06:31 18,1 C 18,1 C 18,1 C 80 % 1023,0 hPa 0,0 l/m 0,0 km/h (0 Bft) N 0 0 min 0,0 UV-I 16 W/m 0,0 km/h (0 Bft)
23.07.2019 06:30 18,1 C 18,1 C 18,1 C 80 % 1022,9 hPa 0,0 l/m 0,0 km/h (0 Bft) N 0 0 min 0,0 UV-I 16 W/m 0,0 km/h (0 Bft)
23.07.2019 06:29 18,1 C 18,1 C 18,1 C 80 % 1022,9 hPa 0,0 l/m 0,0 km/h (0 Bft) N 0 0 min 0,0 UV-I 16 W/m 0,0 km/h (0 Bft)
23.07.2019 06:28 18,1 C 18,1 C 18,1 C 79 % 1022,9 hPa 0,0 l/m 0,0 km/h (0 Bft) N 0 0 min 0,0 UV-I 16 W/m 0,0 km/h (0 Bft)
23.07.2019 06:27 18,1 C 18,1 C 18,1 C 79 % 1022,9 hPa 0,0 l/m 0,0 km/h (0 Bft) N 0 0 min 0,0 UV-I 16 W/m 0,0 km/h (0 Bft)
23.07.2019 06:26 18,1 C 18,1 C 18,2 C 80 % 1022,9 hPa 0,0 l/m 0,0 km/h (0 Bft) N 0 0 min 0,0 UV-I 14 W/m 0,0 km/h (0 Bft)
23.07.2019 06:25 18,1 C 18,1 C 18,2 C 80 % 1022,9 hPa 0,0 l/m 0,0 km/h (0 Bft) N 0 0 min 0,0 UV-I 14 W/m 0,0 km/h (0 Bft)
23.07.2019 06:24 18,1 C 18,1 C 18,2 C 80 % 1022,9 hPa 0,0 l/m 0,0 km/h (0 Bft) N 0 0 min 0,0 UV-I 14 W/m 0,0 km/h (0 Bft)
23.07.2019 06:23 18,2 C 18,2 C 18,2 C 80 % 1022,9 hPa 0,0 l/m 0,0 km/h (0 Bft) N 0 0 min 0,0 UV-I 14 W/m 0,0 km/h (0 Bft)
23.07.2019 06:22 18,2 C 18,2 C 18,2 C 80 % 1022,9 hPa 0,0 l/m 0,0 km/h (0 Bft) N 0 0 min 0,0 UV-I 14 W/m 0,0 km/h (0 Bft)
23.07.2019 06:21 18,2 C 18,2 C 18,2 C 80 % 1022,9 hPa 0,0 l/m 0,0 km/h (0 Bft) N 0 0 min 0,0 UV-I 12 W/m 0,0 km/h (0 Bft)
23.07.2019 06:20 18,2 C 18,2 C 18,2 C 80 % 1022,8 hPa 0,0 l/m 0,0 km/h (0 Bft) N 0 0 min 0,0 UV-I 12 W/m 0,0 km/h (0 Bft)
23.07.2019 06:19 18,2 C 18,2 C 18,2 C 80 % 1022,8 hPa 0,0 l/m 0,0 km/h (0 Bft) N 0 0 min 0,0 UV-I 12 W/m 0,0 km/h (0 Bft)
23.07.2019 06:18 18,2 C 18,2 C 18,2 C 80 % 1022,8 hPa 0,0 l/m 0,0 km/h (0 Bft) N 0 0 min 0,0 UV-I 12 W/m 0,0 km/h (0 Bft)
23.07.2019 06:17 18,2 C 18,2 C 18,2 C 80 % 1022,8 hPa 0,0 l/m 0,0 km/h (0 Bft) N 0 0 min 0,0 UV-I 12 W/m 0,0 km/h (0 Bft)
23.07.2019 06:16 18,2 C 18,2 C 18,2 C 80 % 1022,8 hPa 0,0 l/m 0,0 km/h (0 Bft) N 0 0 min 0,0 UV-I 12 W/m 0,0 km/h (0 Bft)
23.07.2019 06:15 18,2 C 18,2 C 18,2 C 80 % 1022,9 hPa 0,0 l/m 0,0 km/h (0 Bft) N 0 0 min 0,0 UV-I 11 W/m 0,0 km/h (0 Bft)
23.07.2019 06:14 18,2 C 18,2 C 18,2 C 80 % 1022,9 hPa 0,0 l/m 0,0 km/h (0 Bft) N 0 0 min 0,0 UV-I 11 W/m 0,0 km/h (0 Bft)
23.07.2019 06:13 18,2 C 18,2 C 18,2 C 80 % 1022,9 hPa 0,0 l/m 0,0 km/h (0 Bft) N 0 0 min 0,0 UV-I 11 W/m 0,0 km/h (0 Bft)
23.07.2019 06:12 18,2 C 18,2 C 18,2 C 80 % 1022,9 hPa 0,0 l/m 0,0 km/h (0 Bft) N 0 0 min 0,0 UV-I 11 W/m 0,0 km/h (0 Bft)
23.07.2019 06:11 18,2 C 18,2 C 18,2 C 80 % 1022,9 hPa 0,0 l/m 0,0 km/h (0 Bft) N 0 0 min 0,0 UV-I 11 W/m 0,0 km/h (0 Bft)
23.07.2019 06:10 18,2 C 18,2 C 18,2 C 79 % 1022,9 hPa 0,0 l/m 0,0 km/h (0 Bft) N 0 0 min 0,0 UV-I 11 W/m 0,0 km/h (0 Bft)
23.07.2019 06:09 18,2 C 18,2 C 18,2 C 79 % 1022,9 hPa 0,0 l/m 0,0 km/h (0 Bft) N 0 0 min 0,0 UV-I 11 W/m 0,0 km/h (0 Bft)
23.07.2019 06:08 18,2 C 18,2 C 18,2 C 79 % 1022,9 hPa 0,0 l/m 0,0 km/h (0 Bft) N 0 0 min 0,0 UV-I 9 W/m 0,0 km/h (0 Bft)
23.07.2019 06:07 18,2 C 18,2 C 18,2 C 79 % 1022,9 hPa 0,0 l/m 0,0 km/h (0 Bft) N 0 0 min 0,0 UV-I 9 W/m 0,0 km/h (0 Bft)
23.07.2019 06:06 18,2 C 18,2 C 18,2 C 79 % 1022,9 hPa 0,0 l/m 0,0 km/h (0 Bft) N 0 0 min 0,0 UV-I 9 W/m 0,0 km/h (0 Bft)
23.07.2019 06:05 18,2 C 18,2 C 18,2 C 79 % 1022,9 hPa 0,0 l/m 0,0 km/h (0 Bft) N 0 0 min 0,0 UV-I 9 W/m 0,0 km/h (0 Bft)
23.07.2019 06:04 18,2 C 18,2 C 18,2 C 79 % 1022,8 hPa 0,0 l/m 0,0 km/h (0 Bft) N 0 0 min 0,0 UV-I 9 W/m 0,0 km/h (0 Bft)
23.07.2019 06:03 18,2 C 18,2 C 18,2 C 79 % 1022,8 hPa 0,0 l/m 0,0 km/h (0 Bft) N 0 0 min 0,0 UV-I 9 W/m 0,0 km/h (0 Bft)
23.07.2019 06:02 18,2 C 18,2 C 18,2 C 79 % 1022,9 hPa 0,0 l/m 0,0 km/h (0 Bft) N 0 0 min 0,0 UV-I 7 W/m 0,0 km/h (0 Bft)
23.07.2019 06:01 18,2 C 18,2 C 18,2 C 79 % 1022,9 hPa 0,0 l/m 0,0 km/h (0 Bft) N 0 0 min 0,0 UV-I 7 W/m 0,0 km/h (0 Bft)
23.07.2019 06:00 18,2 C 18,2 C 18,2 C 79 % 1022,9 hPa 0,0 l/m 0,0 km/h (0 Bft) N 0 0 min 0,0 UV-I 7 W/m 0,0 km/h (0 Bft)
23.07.2019 05:59 18,2 C 18,2 C 18,2 C 79 % 1022,9 hPa 0,0 l/m 0,0 km/h (0 Bft) N 0 0 min 0,0 UV-I 7 W/m 0,0 km/h (0 Bft)
23.07.2019 05:58 18,2 C 18,2 C 18,2 C 79 % 1022,9 hPa 0,0 l/m 0,0 km/h (0 Bft) N 0 0 min 0,0 UV-I 7 W/m 0,0 km/h (0 Bft)
23.07.2019 05:57 18,2 C 18,2 C 18,2 C 79 % 1022,9 hPa 0,0 l/m 0,0 km/h (0 Bft) N 0 0 min 0,0 UV-I 7 W/m 0,0 km/h (0 Bft)
23.07.2019 05:56 18,2 C 18,2 C 18,2 C 79 % 1022,9 hPa 0,0 l/m 0,0 km/h (0 Bft) N 0 0 min 0,0 UV-I 5 W/m 0,0 km/h (0 Bft)
23.07.2019 05:55 18,2 C 18,2 C 18,3 C 79 % 1022,9 hPa 0,0 l/m 0,0 km/h (0 Bft) N 0 0 min 0,0 UV-I 5 W/m 0,0 km/h (0 Bft)
23.07.2019 05:54 18,2 C 18,2 C 18,3 C 79 % 1022,8 hPa 0,0 l/m 0,0 km/h (0 Bft) N 0 0 min 0,0 UV-I 5 W/m 0,0 km/h (0 Bft)
23.07.2019 05:53 18,3 C 18,3 C 18,3 C 79 % 1022,8 hPa 0,0 l/m 0,0 km/h (0 Bft) N 0 0 min 0,0 UV-I 5 W/m 0,0 km/h (0 Bft)
23.07.2019 05:52 18,3 C 18,3 C 18,3 C 79 % 1022,9 hPa 0,0 l/m 0,0 km/h (0 Bft) N 0 0 min 0,0 UV-I 5 W/m 0,0 km/h (0 Bft)
23.07.2019 05:51 18,3 C 18,3 C 18,3 C 79 % 1022,8 hPa 0,0 l/m 0,0 km/h (0 Bft) N 0 0 min 0,0 UV-I 5 W/m 0,0 km/h (0 Bft)
23.07.2019 05:50 18,3 C 18,3 C 18,3 C 79 % 1022,8 hPa 0,0 l/m 0,0 km/h (0 Bft) N 0 0 min 0,0 UV-I 0 W/m 0,0 km/h (0 Bft)
23.07.2019 05:49 18,3 C 18,3 C 18,3 C 79 % 1022,9 hPa 0,0 l/m 0,0 km/h (0 Bft) N 0 0 min 0,0 UV-I 0 W/m 0,0 km/h (0 Bft)
23.07.2019 05:48 18,3 C 18,3 C 18,3 C 79 % 1022,8 hPa 0,0 l/m 0,0 km/h (0 Bft) N 0 0 min 0,0 UV-I 0 W/m 0,0 km/h (0 Bft)
23.07.2019 05:47 18,3 C 18,3 C 18,3 C 79 % 1022,8 hPa 0,0 l/m 0,0 km/h (0 Bft) N 0 0 min 0,0 UV-I 0 W/m 0,0 km/h (0 Bft)
23.07.2019 05:46 18,3 C 18,3 C 18,3 C 79 % 1022,8 hPa 0,0 l/m 0,0 km/h (0 Bft) N 0 0 min 0,0 UV-I 0 W/m 0,0 km/h (0 Bft)
23.07.2019 05:45 18,3 C 18,3 C 18,3 C 79 % 1022,8 hPa 0,0 l/m 0,0 km/h (0 Bft) N 0 0 min 0,0 UV-I 0 W/m 0,0 km/h (0 Bft)
23.07.2019 05:44 18,3 C 18,3 C 18,3 C 79 % 1022,8 hPa 0,0 l/m 0,0 km/h (0 Bft) N 0 0 min 0,0 UV-I 0 W/m 0,0 km/h (0 Bft)
23.07.2019 05:43 18,3 C 18,3 C 18,3 C 79 % 1022,8 hPa 0,0 l/m 0,0 km/h (0 Bft) N 0 0 min 0,0 UV-I 0 W/m 0,0 km/h (0 Bft)
23.07.2019 05:42 18,3 C 18,3 C 18,4 C 79 % 1022,8 hPa 0,0 l/m 0,0 km/h (0 Bft) N 0 0 min 0,0 UV-I 0 W/m 0,0 km/h (0 Bft)
23.07.2019 05:41 18,3 C 18,3 C 18,4 C 79 % 1022,8 hPa 0,0 l/m 0,0 km/h (0 Bft) N 0 0 min 0,0 UV-I 0 W/m 0,0 km/h (0 Bft)
23.07.2019 05:40 18,4 C 18,3 C 18,4 C 79 % 1022,8 hPa 0,0 l/m 0,0 km/h (0 Bft) N 0 0 min 0,0 UV-I 0 W/m 0,0 km/h (0 Bft)
23.07.2019 05:39 18,4 C 18,4 C 18,4 C 79 % 1022,9 hPa 0,0 l/m 0,0 km/h (0 Bft) N 0 0 min 0,0 UV-I 0 W/m 0,0 km/h (0 Bft)
23.07.2019 05:38 18,4 C 18,4 C 18,4 C 79 % 1022,9 hPa 0,0 l/m 0,0 km/h (0 Bft) N 0 0 min 0,0 UV-I 0 W/m 0,0 km/h (0 Bft)
23.07.2019 05:37 18,4 C 18,4 C 18,4 C 79 % 1022,8 hPa 0,0 l/m 0,0 km/h (0 Bft) N 0 0 min 0,0 UV-I 0 W/m 0,0 km/h (0 Bft)
23.07.2019 05:36 18,4 C 18,4 C 18,4 C 79 % 1022,9 hPa 0,0 l/m 0,0 km/h (0 Bft) N 0 0 min 0,0 UV-I 0 W/m 0,0 km/h (0 Bft)
23.07.2019 05:35 18,4 C 18,4 C 18,4 C 79 % 1022,9 hPa 0,0 l/m 0,0 km/h (0 Bft) N 0 0 min 0,0 UV-I 0 W/m 0,0 km/h (0 Bft)
23.07.2019 05:34 18,4 C 18,4 C 18,4 C 78 % 1022,8 hPa 0,0 l/m 0,0 km/h (0 Bft) N 0 0 min 0,0 UV-I 0 W/m 0,0 km/h (0 Bft)
23.07.2019 05:33 18,4 C 18,3 C 18,4 C 79 % 1022,9 hPa 0,0 l/m 0,0 km/h (0 Bft) N 0 0 min 0,0 UV-I 0 W/m 0,0 km/h (0 Bft)
23.07.2019 05:32 18,4 C 18,3 C 18,4 C 79 % 1022,8 hPa 0,0 l/m 0,0 km/h (0 Bft) N 0 0 min 0,0 UV-I 0 W/m 0,0 km/h (0 Bft)
23.07.2019 05:31 18,3 C 18,3 C 18,4 C 79 % 1022,9 hPa 0,0 l/m 0,0 km/h (0 Bft) N 0 0 min 0,0 UV-I 0 W/m 0,0 km/h (0 Bft)
23.07.2019 05:30 18,3 C 18,3 C 18,3 C 79 % 1022,9 hPa 0,0 l/m 0,0 km/h (0 Bft) N 0 0 min 0,0 UV-I 0 W/m 0,0 km/h (0 Bft)
23.07.2019 05:29 18,3 C 18,3 C 18,4 C 79 % 1023,0 hPa 0,0 l/m 0,0 km/h (0 Bft) N 0 0 min 0,0 UV-I 0 W/m 0,0 km/h (0 Bft)
23.07.2019 05:28 18,3 C 18,3 C 18,3 C 79 % 1022,9 hPa 0,0 l/m 0,0 km/h (0 Bft) N 0 0 min 0,0 UV-I 0 W/m 0,0 km/h (0 Bft)
23.07.2019 05:27 18,3 C 18,3 C 18,3 C 79 % 1022,9 hPa 0,0 l/m 0,0 km/h (0 Bft) N 0 0 min 0,0 UV-I 0 W/m 0,0 km/h (0 Bft)
23.07.2019 05:26 18,3 C 18,3 C 18,3 C 79 % 1023,0 hPa 0,0 l/m 0,0 km/h (0 Bft) N 0 0 min 0,0 UV-I 0 W/m 0,0 km/h (0 Bft)
23.07.2019 05:25 18,3 C 18,3 C 18,3 C 79 % 1022,9 hPa 0,0 l/m 0,0 km/h (0 Bft) N 0 0 min 0,0 UV-I 0 W/m 0,0 km/h (0 Bft)
23.07.2019 05:24 18,3 C 18,2 C 18,3 C 79 % 1022,9 hPa 0,0 l/m 0,0 km/h (0 Bft) N 0 0 min 0,0 UV-I 0 W/m 0,0 km/h (0 Bft)
23.07.2019 05:23 18,2 C 18,2 C 18,3 C 79 % 1022,9 hPa 0,0 l/m 0,0 km/h (0 Bft) N 0 0 min 0,0 UV-I 0 W/m 0,0 km/h (0 Bft)
23.07.2019 05:22 18,2 C 18,2 C 18,2 C 79 % 1022,9 hPa 0,0 l/m 0,0 km/h (0 Bft) N 0 0 min 0,0 UV-I 0 W/m 0,0 km/h (0 Bft)
23.07.2019 05:21 18,2 C 18,2 C 18,2 C 79 % 1022,9 hPa 0,0 l/m 0,0 km/h (0 Bft) N 0 0 min 0,0 UV-I 0 W/m 0,0 km/h (0 Bft)
23.07.2019 05:20 18,2 C 18,1 C 18,2 C 80 % 1022,9 hPa 0,0 l/m 0,0 km/h (0 Bft) N 0 0 min 0,0 UV-I 0 W/m 0,0 km/h (0 Bft)
23.07.2019 05:19 18,1 C 18,1 C 18,1 C 80 % 1023,0 hPa 0,0 l/m 0,0 km/h (0 Bft) N 0 0 min 0,0 UV-I 0 W/m 0,0 km/h (0 Bft)
23.07.2019 05:18 18,1 C 18,1 C 18,1 C 80 % 1023,0 hPa 0,0 l/m 0,0 km/h (0 Bft) N 0 0 min 0,0 UV-I 0 W/m 0,0 km/h (0 Bft)
23.07.2019 05:17 18,1 C 18,1 C 18,1 C 80 % 1023,0 hPa 0,0 l/m 0,0 km/h (0 Bft) N 0 0 min 0,0 UV-I 0 W/m 0,0 km/h (0 Bft)
23.07.2019 05:16 18,1 C 18,1 C 18,1 C 80 % 1023,0 hPa 0,0 l/m 0,0 km/h (0 Bft) N 0 0 min 0,0 UV-I 0 W/m 0,0 km/h (0 Bft)
23.07.2019 05:15 18,1 C 18,1 C 18,1 C 80 % 1023,1 hPa 0,0 l/m 0,0 km/h (0 Bft) N 0 0 min 0,0 UV-I 0 W/m 0,0 km/h (0 Bft)
23.07.2019 05:14 18,1 C 18,1 C 18,2 C 80 % 1023,1 hPa 0,0 l/m 0,0 km/h (0 Bft) N 0 0 min 0,0 UV-I 0 W/m 0,0 km/h (0 Bft)
23.07.2019 05:13 18,1 C 18,1 C 18,2 C 80 % 1023,0 hPa 0,0 l/m 0,0 km/h (0 Bft) N 0 0 min 0,0 UV-I 0 W/m 0,0 km/h (0 Bft)
23.07.2019 05:12 18,1 C 18,1 C 18,2 C 80 % 1023,1 hPa 0,0 l/m 0,0 km/h (0 Bft) N 0 0 min 0,0 UV-I 0 W/m 0,0 km/h (0 Bft)
23.07.2019 05:11 18,2 C 18,1 C 18,2 C 80 % 1023,1 hPa 0,0 l/m 0,0 km/h (0 Bft) N 0 0 min 0,0 UV-I 0 W/m 0,0 km/h (0 Bft)
23.07.2019 05:10 18,2 C 18,2 C 18,2 C 79 % 1023,0 hPa 0,0 l/m 0,0 km/h (0 Bft) N 0 0 min 0,0 UV-I 0 W/m 0,0 km/h (0 Bft)
23.07.2019 05:09 18,2 C 18,2 C 18,2 C 79 % 1023,0 hPa 0,0 l/m 0,0 km/h (0 Bft) N 0 0 min 0,0 UV-I 0 W/m 0,0 km/h (0 Bft)
23.07.2019 05:08 18,2 C 18,2 C 18,2 C 79 % 1023,1 hPa 0,0 l/m 0,0 km/h (0 Bft) N 0 0 min 0,0 UV-I 0 W/m 0,0 km/h (0 Bft)
23.07.2019 05:07 18,2 C 18,2 C 18,2 C 79 % 1023,0 hPa 0,0 l/m 0,0 km/h (0 Bft) N 0 0 min 0,0 UV-I 0 W/m 0,0 km/h (0 Bft)
23.07.2019 05:06 18,2 C 18,2 C 18,2 C 78 % 1023,0 hPa 0,0 l/m 0,0 km/h (0 Bft) N 0 0 min 0,0 UV-I 0 W/m 0,0 km/h (0 Bft)
23.07.2019 05:05 18,2 C 18,2 C 18,3 C 78 % 1023,0 hPa 0,0 l/m 0,0 km/h (0 Bft) N 0 0 min 0,0 UV-I 0 W/m 0,0 km/h (0 Bft)
23.07.2019 05:04 18,3 C 18,3 C 18,3 C 78 % 1023,0 hPa 0,0 l/m 0,0 km/h (0 Bft) N 0 0 min 0,0 UV-I 0 W/m 0,0 km/h (0 Bft)
23.07.2019 05:03 18,3 C 18,3 C 18,3 C 77 % 1023,0 hPa 0,0 l/m 0,0 km/h (0 Bft) N 0 0 min 0,0 UV-I 0 W/m 0,0 km/h (0 Bft)
23.07.2019 05:02 18,3 C 18,3 C 18,4 C 77 % 1023,0 hPa 0,0 l/m 0,0 km/h (0 Bft) N 0 0 min 0,0 UV-I 0 W/m 0,0 km/h (0 Bft)
23.07.2019 05:01 18,4 C 18,4 C 18,5 C 76 % 1023,0 hPa 0,0 l/m 0,0 km/h (0 Bft) N 0 0 min 0,0 UV-I 0 W/m 0,0 km/h (0 Bft)
23.07.2019 05:00 18,5 C 18,5 C 18,6 C 77 % 1023,0 hPa 0,0 l/m 0,0 km/h (0 Bft) N 0 0 min 0,0 UV-I 0 W/m 0,0 km/h (0 Bft)
23.07.2019 04:59 18,6 C 18,6 C 18,6 C 76 % 1023,0 hPa 0,0 l/m 0,0 km/h (0 Bft) N 0 0 min 0,0 UV-I 0 W/m 0,0 km/h (0 Bft)
23.07.2019 04:58 18,7 C 18,7 C 18,7 C 76 % 1023,0 hPa 0,0 l/m 0,0 km/h (0 Bft) N 0 0 min 0,0 UV-I 0 W/m 0,0 km/h (0 Bft)
23.07.2019 04:57 18,7 C 18,7 C 18,7 C 76 % 1023,0 hPa 0,0 l/m 0,0 km/h (0 Bft) N 0 0 min 0,0 UV-I 0 W/m 0,0 km/h (0 Bft)
23.07.2019 04:56 18,7 C 18,7 C 18,8 C 75 % 1023,0 hPa 0,0 l/m 0,0 km/h (0 Bft) N 0 0 min 0,0 UV-I 0 W/m 0,0 km/h (0 Bft)
23.07.2019 04:55 18,9 C 18,9 C 19,0 C 75 % 1023,0 hPa 0,0 l/m 0,0 km/h (0 Bft) N 0 0 min 0,0 UV-I 0 W/m 0,0 km/h (0 Bft)
23.07.2019 04:54 19,0 C 19,0 C 19,0 C 76 % 1023,0 hPa 0,0 l/m 0,0 km/h (0 Bft) N 0 0 min 0,0 UV-I 0 W/m 0,0 km/h (0 Bft)
23.07.2019 04:53 19,0 C 18,9 C 19,0 C 76 % 1023,0 hPa 0,0 l/m 0,0 km/h (0 Bft) N 0 0 min 0,0 UV-I 0 W/m 0,0 km/h (0 Bft)
23.07.2019 04:52 19,0 C 18,9 C 19,0 C 76 % 1023,0 hPa 0,0 l/m 0,0 km/h (0 Bft) N 0 0 min 0,0 UV-I 0 W/m 0,0 km/h (0 Bft)
23.07.2019 04:51 18,9 C 18,9 C 18,9 C 77 % 1023,0 hPa 0,0 l/m 0,0 km/h (0 Bft) N 0 0 min 0,0 UV-I 0 W/m 0,0 km/h (0 Bft)
23.07.2019 04:50 18,9 C 18,9 C 18,9 C 77 % 1023,0 hPa 0,0 l/m 0,0 km/h (0 Bft) N 0 0 min 0,0 UV-I 0 W/m 0,0 km/h (0 Bft)
23.07.2019 04:49 18,9 C 18,9 C 18,9 C 77 % 1023,0 hPa 0,0 l/m 0,0 km/h (0 Bft) N 0 0 min 0,0 UV-I 0 W/m 0,0 km/h (0 Bft)
23.07.2019 04:48 18,9 C 18,8 C 18,9 C 77 % 1023,0 hPa 0,0 l/m 0,0 km/h (0 Bft) N 0 0 min 0,0 UV-I 0 W/m 0,0 km/h (0 Bft)
23.07.2019 04:47 18,9 C 18,8 C 18,9 C 77 % 1023,0 hPa 0,0 l/m 0,0 km/h (0 Bft) N 0 0 min 0,0 UV-I 0 W/m 0,0 km/h (0 Bft)
23.07.2019 04:46 18,8 C 18,8 C 18,8 C 78 % 1023,0 hPa 0,0 l/m 0,0 km/h (0 Bft) N 0 0 min 0,0 UV-I 0 W/m 0,0 km/h (0 Bft)
23.07.2019 04:45 18,8 C 18,7 C 18,8 C 78 % 1022,9 hPa 0,0 l/m 0,0 km/h (0 Bft) N 0 0 min 0,0 UV-I 0 W/m 0,0 km/h (0 Bft)
23.07.2019 04:44 18,7 C 18,7 C 18,7 C 78 % 1023,0 hPa 0,0 l/m 0,0 km/h (0 Bft) N 0 0 min 0,0 UV-I 0 W/m 0,0 km/h (0 Bft)
23.07.2019 04:43 18,7 C 18,7 C 18,7 C 78 % 1023,0 hPa 0,0 l/m 0,0 km/h (0 Bft) N 0 0 min 0,0 UV-I 0 W/m 0,0 km/h (0 Bft)
23.07.2019 04:42 18,7 C 18,6 C 18,7 C 78 % 1023,0 hPa 0,0 l/m 0,0 km/h (0 Bft) N 0 0 min 0,0 UV-I 0 W/m 0,0 km/h (0 Bft)
23.07.2019 04:41 18,6 C 18,6 C 18,6 C 79 % 1023,1 hPa 0,0 l/m 0,0 km/h (0 Bft) N 0 0 min 0,0 UV-I 0 W/m 0,0 km/h (0 Bft)
23.07.2019 04:40 18,6 C 18,4 C 18,6 C 79 % 1023,0 hPa 0,0 l/m 0,0 km/h (0 Bft) N 0 0 min 0,0 UV-I 0 W/m 0,0 km/h (0 Bft)
23.07.2019 04:39 18,4 C 18,4 C 18,4 C 79 % 1023,1 hPa 0,0 l/m 0,0 km/h (0 Bft) N 0 0 min 0,0 UV-I 0 W/m 0,0 km/h (0 Bft)
23.07.2019 04:38 18,4 C 18,3 C 18,4 C 79 % 1023,0 hPa 0,0 l/m 0,0 km/h (0 Bft) N 0 0 min 0,0 UV-I 0 W/m 0,0 km/h (0 Bft)
23.07.2019 04:37 18,3 C 18,3 C 18,3 C 80 % 1023,1 hPa 0,0 l/m 0,0 km/h (0 Bft) N 0 0 min 0,0 UV-I 0 W/m 0,0 km/h (0 Bft)
23.07.2019 04:36 18,3 C 18,2 C 18,3 C 80 % 1023,0 hPa 0,0 l/m 0,0 km/h (0 Bft) N 0 0 min 0,0 UV-I 0 W/m 0,0 km/h (0 Bft)
23.07.2019 04:35 18,2 C 18,2 C 18,2 C 81 % 1023,1 hPa 0,0 l/m 0,0 km/h (0 Bft) N 0 0 min 0,0 UV-I 0 W/m 0,0 km/h (0 Bft)
23.07.2019 04:34 18,2 C 18,1 C 18,2 C 81 % 1023,0 hPa 0,0 l/m 0,0 km/h (0 Bft) N 0 0 min 0,0 UV-I 0 W/m 0,0 km/h (0 Bft)
23.07.2019 04:33 18,1 C 18,1 C 18,1 C 81 % 1023,2 hPa 0,0 l/m 0,0 km/h (0 Bft) N 0 0 min 0,0 UV-I 0 W/m 0,0 km/h (0 Bft)
23.07.2019 04:32 18,1 C 18,1 C 18,1 C 81 % 1023,1 hPa 0,0 l/m 0,0 km/h (0 Bft) N 0 0 min 0,0 UV-I 0 W/m 0,0 km/h (0 Bft)
23.07.2019 04:31 18,1 C 18,1 C 18,1 C 81 % 1023,1 hPa 0,0 l/m 0,0 km/h (0 Bft) N 0 0 min 0,0 UV-I 0 W/m 0,0 km/h (0 Bft)
23.07.2019 04:30 18,0 C 18,0 C 18,1 C 82 % 1023,1 hPa 0,0 l/m 0,0 km/h (0 Bft) N 0 0 min 0,0 UV-I 0 W/m 0,0 km/h (0 Bft)
23.07.2019 04:29 18,1 C 18,1 C 18,1 C 82 % 1023,1 hPa 0,0 l/m 0,0 km/h (0 Bft) N 0 0 min 0,0 UV-I 0 W/m 0,0 km/h (0 Bft)
23.07.2019 04:28 18,1 C 18,1 C 18,1 C 82 % 1023,1 hPa 0,0 l/m 0,0 km/h (0 Bft) N 0 0 min 0,0 UV-I 0 W/m 0,0 km/h (0 Bft)
23.07.2019 04:27 18,1 C 18,1 C 18,1 C 82 % 1023,2 hPa 0,0 l/m 0,0 km/h (0 Bft) N 0 0 min 0,0 UV-I 0 W/m 0,0 km/h (0 Bft)
23.07.2019 04:26 18,1 C 18,1 C 18,1 C 82 % 1023,1 hPa 0,0 l/m 0,0 km/h (0 Bft) N 0 0 min 0,0 UV-I 0 W/m 0,0 km/h (0 Bft)
23.07.2019 04:25 18,1 C 18,1 C 18,1 C 82 % 1023,1 hPa 0,0 l/m 0,0 km/h (0 Bft) N 0 0 min 0,0 UV-I 0 W/m 0,0 km/h (0 Bft)
23.07.2019 04:24 18,1 C 18,1 C 18,1 C 81 % 1023,1 hPa 0,0 l/m 0,0 km/h (0 Bft) N 0 0 min 0,0 UV-I 0 W/m 0,0 km/h (0 Bft)
23.07.2019 04:23 18,1 C 18,1 C 18,2 C 81 % 1023,1 hPa 0,0 l/m 0,0 km/h (0 Bft) N 0 0 min 0,0 UV-I 0 W/m 0,0 km/h (0 Bft)
23.07.2019 04:22 18,2 C 18,2 C 18,2 C 81 % 1023,2 hPa 0,0 l/m 0,0 km/h (0 Bft) N 0 0 min 0,0 UV-I 0 W/m 0,0 km/h (0 Bft)
23.07.2019 04:21 18,2 C 18,2 C 18,2 C 81 % 1023,1 hPa 0,0 l/m 0,0 km/h (0 Bft) N 0 0 min 0,0 UV-I 0 W/m 0,0 km/h (0 Bft)
23.07.2019 04:20 18,2 C 18,2 C 18,2 C 81 % 1023,1 hPa 0,0 l/m 0,0 km/h (0 Bft) N 0 0 min 0,0 UV-I 0 W/m 0,0 km/h (0 Bft)
23.07.2019 04:19 18,2 C 18,2 C 18,3 C 81 % 1023,1 hPa 0,0 l/m 0,0 km/h (0 Bft) N 0 0 min 0,0 UV-I 0 W/m 0,0 km/h (0 Bft)
23.07.2019 04:18 18,3 C 18,3 C 18,3 C 81 % 1023,1 hPa 0,0 l/m 0,0 km/h (0 Bft) N 0 0 min 0,0 UV-I 0 W/m 0,0 km/h (0 Bft)
23.07.2019 04:17 18,3 C 18,3 C 18,3 C 81 % 1023,1 hPa 0,0 l/m 0,0 km/h (0 Bft) N 0 0 min 0,0 UV-I 0 W/m 0,0 km/h (0 Bft)
23.07.2019 04:16 18,3 C 18,3 C 18,3 C 81 % 1023,1 hPa 0,0 l/m 0,0 km/h (0 Bft) N 0 0 min 0,0 UV-I 0 W/m 0,0 km/h (0 Bft)
23.07.2019 04:15 18,3 C 18,3 C 18,3 C 81 % 1023,1 hPa 0,0 l/m 0,0 km/h (0 Bft) N 0 0 min 0,0 UV-I 0 W/m 0,0 km/h (0 Bft)
23.07.2019 04:14 18,3 C 18,3 C 18,4 C 81 % 1023,1 hPa 0,0 l/m 0,0 km/h (0 Bft) N 0 0 min 0,0 UV-I 0 W/m 0,0 km/h (0 Bft)
23.07.2019 04:13 18,4 C 18,4 C 18,4 C 81 % 1023,2 hPa 0,0 l/m 0,0 km/h (0 Bft) N 0 0 min 0,0 UV-I 0 W/m 0,0 km/h (0 Bft)
23.07.2019 04:12 18,4 C 18,4 C 18,4 C 81 % 1023,1 hPa 0,0 l/m 0,0 km/h (0 Bft) N 0 0 min 0,0 UV-I 0 W/m 0,0 km/h (0 Bft)
23.07.2019 04:11 18,4 C 18,4 C 18,4 C 81 % 1023,1 hPa 0,0 l/m 0,0 km/h (0 Bft) N 0 0 min 0,0 UV-I 0 W/m 0,0 km/h (0 Bft)
23.07.2019 04:10 18,4 C 18,4 C 18,4 C 80 % 1023,1 hPa 0,0 l/m 0,0 km/h (0 Bft) N 0 0 min 0,0 UV-I 0 W/m 0,0 km/h (0 Bft)
23.07.2019 04:09 18,4 C 18,4 C 18,4 C 80 % 1023,1 hPa 0,0 l/m 0,0 km/h (0 Bft) N 0 0 min 0,0 UV-I 0 W/m 0,0 km/h (0 Bft)
23.07.2019 04:08 18,4 C 18,4 C 18,4 C 81 % 1023,1 hPa 0,0 l/m 0,0 km/h (0 Bft) N 0 0 min 0,0 UV-I 0 W/m 0,0 km/h (0 Bft)
23.07.2019 04:07 18,4 C 18,4 C 18,4 C 81 % 1023,0 hPa 0,0 l/m 0,0 km/h (0 Bft) N 0 0 min 0,0 UV-I 0 W/m 0,0 km/h (0 Bft)
23.07.2019 04:06 18,4 C 18,4 C 18,4 C 81 % 1023,1 hPa 0,0 l/m 0,0 km/h (0 Bft) N 0 0 min 0,0 UV-I 0 W/m 0,0 km/h (0 Bft)
23.07.2019 04:05 18,4 C 18,4 C 18,4 C 80 % 1023,1 hPa 0,0 l/m 0,0 km/h (0 Bft) N 0 0 min 0,0 UV-I 0 W/m 0,0 km/h (0 Bft)
23.07.2019 04:04 18,4 C 18,4 C 18,4 C 80 % 1023,1 hPa 0,0 l/m 0,0 km/h (0 Bft) N 0 0 min 0,0 UV-I 0 W/m 0,0 km/h (0 Bft)
23.07.2019 04:03 18,4 C 18,4 C 18,4 C 80 % 1023,2 hPa 0,0 l/m 0,0 km/h (0 Bft) N 0 0 min 0,0 UV-I 0 W/m 0,0 km/h (0 Bft)
23.07.2019 04:02 18,4 C 18,4 C 18,5 C 80 % 1023,1 hPa 0,0 l/m 0,0 km/h (0 Bft) N 0 0 min 0,0 UV-I 0 W/m 0,0 km/h (0 Bft)
23.07.2019 04:01 18,5 C 18,4 C 18,5 C 80 % 1023,1 hPa 0,0 l/m 0,0 km/h (0 Bft) N 0 0 min 0,0 UV-I 0 W/m 0,0 km/h (0 Bft)
23.07.2019 04:00 18,5 C 18,5 C 18,5 C 80 % 1023,1 hPa 0,0 l/m 0,0 km/h (0 Bft) N 0 0 min 0,0 UV-I 0 W/m 0,0 km/h (0 Bft)
23.07.2019 03:59 18,5 C 18,5 C 18,6 C 79 % 1023,1 hPa 0,0 l/m 0,0 km/h (0 Bft) N 0 0 min 0,0 UV-I 0 W/m 0,0 km/h (0 Bft)
23.07.2019 03:58 18,6 C 18,6 C 18,6 C 78 % 1023,1 hPa 0,0 l/m 0,0 km/h (0 Bft) N 0 0 min 0,0 UV-I 0 W/m 0,0 km/h (0 Bft)
23.07.2019 03:57 18,6 C 18,6 C 18,6 C 78 % 1023,1 hPa 0,0 l/m 0,0 km/h (0 Bft) N 0 0 min 0,0 UV-I 0 W/m 0,0 km/h (0 Bft)
23.07.2019 03:56 18,6 C 18,6 C 18,7 C 78 % 1023,1 hPa 0,0 l/m 0,0 km/h (0 Bft) N 0 0 min 0,0 UV-I 0 W/m 0,0 km/h (0 Bft)
23.07.2019 03:55 18,7 C 18,6 C 18,7 C 80 % 1023,1 hPa 0,0 l/m 0,0 km/h (0 Bft) N 0 0 min 0,0 UV-I 0 W/m 0,0 km/h (0 Bft)
23.07.2019 03:54 18,7 C 18,7 C 18,7 C 80 % 1023,1 hPa 0,0 l/m 0,0 km/h (0 Bft) N 0 0 min 0,0 UV-I 0 W/m 0,0 km/h (0 Bft)
23.07.2019 03:53 18,7 C 18,7 C 18,7 C 80 % 1023,1 hPa 0,0 l/m 0,0 km/h (0 Bft) N 0 0 min 0,0 UV-I 0 W/m 0,0 km/h (0 Bft)
23.07.2019 03:52 18,7 C 18,7 C 18,7 C 80 % 1023,2 hPa 0,0 l/m 0,0 km/h (0 Bft) N 0 0 min 0,0 UV-I 0 W/m 0,0 km/h (0 Bft)
23.07.2019 03:51 18,7 C 18,7 C 18,7 C 80 % 1023,1 hPa 0,0 l/m 0,0 km/h (0 Bft) N 0 0 min 0,0 UV-I 0 W/m 0,0 km/h (0 Bft)
23.07.2019 03:50 18,7 C 18,7 C 18,7 C 80 % 1023,1 hPa 0,0 l/m 0,0 km/h (0 Bft) N 0 0 min 0,0 UV-I 0 W/m 0,0 km/h (0 Bft)
23.07.2019 03:49 18,7 C 18,7 C 18,7 C 80 % 1023,1 hPa 0,0 l/m 0,0 km/h (0 Bft) N 0 0 min 0,0 UV-I 0 W/m 0,0 km/h (0 Bft)
23.07.2019 03:48 18,8 C 18,7 C 18,8 C 80 % 1023,1 hPa 0,0 l/m 0,0 km/h (0 Bft) N 0 0 min 0,0 UV-I 0 W/m 0,0 km/h (0 Bft)
23.07.2019 03:47 18,7 C 18,7 C 18,8 C 80 % 1023,1 hPa 0,0 l/m 0,0 km/h (0 Bft) N 0 0 min 0,0 UV-I 0 W/m 0,0 km/h (0 Bft)
23.07.2019 03:46 18,8 C 18,7 C 18,8 C 80 % 1023,1 hPa 0,0 l/m 0,0 km/h (0 Bft) N 0 0 min 0,0 UV-I 0 W/m 0,0 km/h (0 Bft)
23.07.2019 03:45 18,8 C 18,7 C 18,8 C 80 % 1023,1 hPa 0,0 l/m 0,0 km/h (0 Bft) N 0 0 min 0,0 UV-I 0 W/m 0,0 km/h (0 Bft)
23.07.2019 03:44 18,8 C 18,8 C 18,8 C 80 % 1023,1 hPa 0,0 l/m 0,0 km/h (0 Bft) N 0 0 min 0,0 UV-I 0 W/m 0,0 km/h (0 Bft)
23.07.2019 03:43 18,8 C 18,8 C 18,8 C 80 % 1023,0 hPa 0,0 l/m 0,0 km/h (0 Bft) N 0 0 min 0,0 UV-I 0 W/m 0,0 km/h (0 Bft)
23.07.2019 03:42 18,8 C 18,8 C 18,8 C 80 % 1023,1 hPa 0,0 l/m 0,0 km/h (0 Bft) N 0 0 min 0,0 UV-I 0 W/m 0,0 km/h (0 Bft)
23.07.2019 03:41 18,8 C 18,8 C 18,8 C 80 % 1023,0 hPa 0,0 l/m 0,0 km/h (0 Bft) N 0 0 min 0,0 UV-I 0 W/m 0,0 km/h (0 Bft)
23.07.2019 03:40 18,8 C 18,8 C 18,9 C 79 % 1023,1 hPa 0,0 l/m 0,0 km/h (0 Bft) N 0 0 min 0,0 UV-I 0 W/m 0,0 km/h (0 Bft)
23.07.2019 03:39 18,9 C 18,9 C 18,9 C 79 % 1023,1 hPa 0,0 l/m 0,0 km/h (0 Bft) N 0 0 min 0,0 UV-I 0 W/m 0,0 km/h (0 Bft)
23.07.2019 03:38 18,9 C 18,9 C 18,9 C 79 % 1023,1 hPa 0,0 l/m 0,0 km/h (0 Bft) N 0 0 min 0,0 UV-I 0 W/m 0,0 km/h (0 Bft)
23.07.2019 03:37 18,9 C 18,9 C 18,9 C 79 % 1023,1 hPa 0,0 l/m 0,0 km/h (0 Bft) N 0 0 min 0,0 UV-I 0 W/m 0,0 km/h (0 Bft)
23.07.2019 03:36 18,9 C 18,9 C 19,0 C 79 % 1023,0 hPa 0,0 l/m 0,0 km/h (0 Bft) N 0 0 min 0,0 UV-I 0 W/m 0,0 km/h (0 Bft)
23.07.2019 03:35 18,9 C 18,9 C 19,0 C 79 % 1023,1 hPa 0,0 l/m 0,0 km/h (0 Bft) N 0 0 min 0,0 UV-I 0 W/m 0,0 km/h (0 Bft)
23.07.2019 03:34 18,9 C 18,9 C 19,0 C 79 % 1023,1 hPa 0,0 l/m 0,0 km/h (0 Bft) N 0 0 min 0,0 UV-I 0 W/m 0,0 km/h (0 Bft)
23.07.2019 03:33 19,0 C 18,9 C 19,0 C 79 % 1023,1 hPa 0,0 l/m 0,0 km/h (0 Bft) N 0 0 min 0,0 UV-I 0 W/m 0,0 km/h (0 Bft)
23.07.2019 03:32 19,0 C 19,0 C 19,0 C 79 % 1023,0 hPa 0,0 l/m 0,0 km/h (0 Bft) N 0 0 min 0,0 UV-I 0 W/m 0,0 km/h (0 Bft)
23.07.2019 03:31 19,0 C 19,0 C 19,0 C 79 % 1023,1 hPa 0,0 l/m 0,0 km/h (0 Bft) N 0 0 min 0,0 UV-I 0 W/m 0,0 km/h (0 Bft)
23.07.2019 03:30 19,0 C 19,0 C 19,1 C 79 % 1023,1 hPa 0,0 l/m 0,0 km/h (0 Bft) N 0 0 min 0,0 UV-I 0 W/m 0,0 km/h (0 Bft)
23.07.2019 03:29 19,1 C 19,0 C 19,1 C 79 % 1023,1 hPa 0,0 l/m 0,0 km/h (0 Bft) N 0 0 min 0,0 UV-I 0 W/m 0,0 km/h (0 Bft)
23.07.2019 03:28 19,0 C 19,0 C 19,1 C 79 % 1023,1 hPa 0,0 l/m 0,0 km/h (0 Bft) N 0 0 min 0,0 UV-I 0 W/m 0,0 km/h (0 Bft)
23.07.2019 03:27 19,1 C 19,1 C 19,1 C 79 % 1023,1 hPa 0,0 l/m 0,0 km/h (0 Bft) N 0 0 min 0,0 UV-I 0 W/m 0,0 km/h (0 Bft)
23.07.2019 03:26 19,1 C 19,1 C 19,1 C 79 % 1023,1 hPa 0,0 l/m 0,0 km/h (0 Bft) N 0 0 min 0,0 UV-I 0 W/m 0,0 km/h (0 Bft)
23.07.2019 03:25 19,1 C 19,1 C 19,1 C 79 % 1023,1 hPa 0,0 l/m 0,0 km/h (0 Bft) N 0 0 min 0,0 UV-I 0 W/m 0,0 km/h (0 Bft)
23.07.2019 03:24 19,1 C 19,1 C 19,1 C 79 % 1023,1 hPa 0,0 l/m 0,0 km/h (0 Bft) N 0 0 min 0,0 UV-I 0 W/m 0,0 km/h (0 Bft)
23.07.2019 03:23 19,1 C 19,1 C 19,1 C 79 % 1023,1 hPa 0,0 l/m 0,0 km/h (0 Bft) N 0 0 min 0,0 UV-I 0 W/m 0,0 km/h (0 Bft)
23.07.2019 03:22 19,1 C 19,1 C 19,1 C 79 % 1023,0 hPa 0,0 l/m 0,0 km/h (0 Bft) N 0 0 min 0,0 UV-I 0 W/m 0,0 km/h (0 Bft)
23.07.2019 03:21 19,1 C 19,1 C 19,1 C 79 % 1023,1 hPa 0,0 l/m 0,0 km/h (0 Bft) N 0 0 min 0,0 UV-I 0 W/m 0,0 km/h (0 Bft)
23.07.2019 03:20 19,1 C 19,1 C 19,1 C 79 % 1023,1 hPa 0,0 l/m 0,0 km/h (0 Bft) N 0 0 min 0,0 UV-I 0 W/m 0,0 km/h (0 Bft)
23.07.2019 03:19 19,1 C 19,1 C 19,1 C 79 % 1023,1 hPa 0,0 l/m 0,0 km/h (0 Bft) N 0 0 min 0,0 UV-I 0 W/m 0,0 km/h (0 Bft)
23.07.2019 03:18 19,1 C 19,1 C 19,1 C 79 % 1023,0 hPa 0,0 l/m 0,0 km/h (0 Bft) N 0 0 min 0,0 UV-I 0 W/m 0,0 km/h (0 Bft)
23.07.2019 03:17 19,1 C 19,1 C 19,1 C 79 % 1023,0 hPa 0,0 l/m 0,0 km/h (0 Bft) N 0 0 min 0,0 UV-I 0 W/m 0,0 km/h (0 Bft)
23.07.2019 03:16 19,1 C 19,1 C 19,1 C 79 % 1023,1 hPa 0,0 l/m 0,0 km/h (0 Bft) N 0 0 min 0,0 UV-I 0 W/m 0,0 km/h (0 Bft)
23.07.2019 03:15 19,1 C 19,1 C 19,1 C 79 % 1023,1 hPa 0,0 l/m 0,0 km/h (0 Bft) N 0 0 min 0,0 UV-I 0 W/m 0,0 km/h (0 Bft)
23.07.2019 03:14 19,0 C 19,0 C 19,1 C 79 % 1023,1 hPa 0,0 l/m 0,0 km/h (0 Bft) N 0 0 min 0,0 UV-I 0 W/m 0,0 km/h (0 Bft)
23.07.2019 03:13 19,1 C 19,0 C 19,1 C 80 % 1023,0 hPa 0,0 l/m 0,0 km/h (0 Bft) N 0 0 min 0,0 UV-I 0 W/m 0,0 km/h (0 Bft)
23.07.2019 03:12 19,0 C 19,0 C 19,0 C 80 % 1023,0 hPa 0,0 l/m 0,0 km/h (0 Bft) N 0 0 min 0,0 UV-I 0 W/m 0,0 km/h (0 Bft)
23.07.2019 03:11 18,9 C 18,9 C 18,9 C 80 % 1023,1 hPa 0,0 l/m 0,0 km/h (0 Bft) N 0 0 min 0,0 UV-I 0 W/m 0,0 km/h (0 Bft)
23.07.2019 03:10 18,9 C 18,9 C 18,9 C 80 % 1023,1 hPa 0,0 l/m 0,0 km/h (0 Bft) N 0 0 min 0,0 UV-I 0 W/m 0,0 km/h (0 Bft)
23.07.2019 03:09 18,9 C 18,9 C 18,9 C 80 % 1023,1 hPa 0,0 l/m 0,0 km/h (0 Bft) N 0 0 min 0,0 UV-I 0 W/m 0,0 km/h (0 Bft)
23.07.2019 03:08 18,9 C 18,9 C 18,9 C 80 % 1023,1 hPa 0,0 l/m 0,0 km/h (0 Bft) N 0 0 min 0,0 UV-I 0 W/m 0,0 km/h (0 Bft)
23.07.2019 03:07 18,9 C 18,9 C 18,9 C 80 % 1023,1 hPa 0,0 l/m 0,0 km/h (0 Bft) N 0 0 min 0,0 UV-I 0 W/m 0,0 km/h (0 Bft)
23.07.2019 03:06 18,9 C 18,9 C 18,9 C 80 % 1023,1 hPa 0,0 l/m 0,0 km/h (0 Bft) N 0 0 min 0,0 UV-I 0 W/m 0,0 km/h (0 Bft)
23.07.2019 03:05 18,9 C 18,9 C 18,9 C 80 % 1023,1 hPa 0,0 l/m 0,0 km/h (0 Bft) N 0 0 min 0,0 UV-I 0 W/m 0,0 km/h (0 Bft)
23.07.2019 03:04 18,9 C 18,9 C 19,0 C 80 % 1023,1 hPa 0,0 l/m 0,0 km/h (0 Bft) N 0 0 min 0,0 UV-I 0 W/m 0,0 km/h (0 Bft)
23.07.2019 03:03 19,0 C 18,9 C 19,0 C 80 % 1023,1 hPa 0,0 l/m 0,0 km/h (0 Bft) N 0 0 min 0,0 UV-I 0 W/m 0,0 km/h (0 Bft)
23.07.2019 03:02 19,0 C 19,0 C 19,0 C 79 % 1023,1 hPa 0,0 l/m 0,0 km/h (0 Bft) N 0 0 min 0,0 UV-I 0 W/m 0,0 km/h (0 Bft)
23.07.2019 03:01 18,9 C 18,9 C 19,0 C 79 % 1023,1 hPa 0,0 l/m 0,0 km/h (0 Bft) N 0 0 min 0,0 UV-I 0 W/m 0,0 km/h (0 Bft)
23.07.2019 03:00 19,1 C 19,0 C 19,1 C 80 % 1023,1 hPa 0,0 l/m 0,0 km/h (0 Bft) N 0 0 min 0,0 UV-I 0 W/m 0,0 km/h (0 Bft)
23.07.2019 02:59 19,1 C 19,1 C 19,1 C 79 % 1023,1 hPa 0,0 l/m 0,0 km/h (0 Bft) N 0 0 min 0,0 UV-I 0 W/m 0,0 km/h (0 Bft)
23.07.2019 02:58 19,1 C 19,1 C 19,1 C 79 % 1023,2 hPa 0,0 l/m 0,0 km/h (0 Bft) N 0 0 min 0,0 UV-I 0 W/m 0,0 km/h (0 Bft)
23.07.2019 02:57 19,1 C 19,1 C 19,1 C 80 % 1023,1 hPa 0,0 l/m 0,0 km/h (0 Bft) N 0 0 min 0,0 UV-I 0 W/m 0,0 km/h (0 Bft)
23.07.2019 02:56 19,1 C 19,1 C 19,2 C 79 % 1023,1 hPa 0,0 l/m 0,0 km/h (0 Bft) N 0 0 min 0,0 UV-I 0 W/m 0,0 km/h (0 Bft)
23.07.2019 02:55 19,1 C 19,1 C 19,2 C 79 % 1023,1 hPa 0,0 l/m 0,0 km/h (0 Bft) N 0 0 min 0,0 UV-I 0 W/m 0,0 km/h (0 Bft)
23.07.2019 02:54 19,1 C 19,1 C 19,2 C 79 % 1023,1 hPa 0,0 l/m 0,0 km/h (0 Bft) N 0 0 min 0,0 UV-I 0 W/m 0,0 km/h (0 Bft)
23.07.2019 02:53 19,2 C 19,2 C 19,2 C 79 % 1023,1 hPa 0,0 l/m 0,0 km/h (0 Bft) N 0 0 min 0,0 UV-I 0 W/m 0,0 km/h (0 Bft)
23.07.2019 02:52 19,2 C 19,2 C 19,2 C 79 % 1023,2 hPa 0,0 l/m 0,0 km/h (0 Bft) N 0 0 min 0,0 UV-I 0 W/m 0,0 km/h (0 Bft)
23.07.2019 02:51 19,2 C 19,2 C 19,2 C 79 % 1023,1 hPa 0,0 l/m 0,0 km/h (0 Bft) N 0 0 min 0,0 UV-I 0 W/m 0,0 km/h (0 Bft)
23.07.2019 02:50 19,2 C 19,2 C 19,2 C 79 % 1023,1 hPa 0,0 l/m 0,0 km/h (0 Bft) N 0 0 min 0,0 UV-I 0 W/m 0,0 km/h (0 Bft)
23.07.2019 02:49 19,3 C 19,2 C 19,3 C 79 % 1023,1 hPa 0,0 l/m 0,0 km/h (0 Bft) N 0 0 min 0,0 UV-I 0 W/m 0,0 km/h (0 Bft)
23.07.2019 02:48 19,3 C 19,3 C 19,3 C 79 % 1023,1 hPa 0,0 l/m 0,0 km/h (0 Bft) N 0 0 min 0,0 UV-I 0 W/m 0,0 km/h (0 Bft)
23.07.2019 02:47 19,3 C 19,3 C 19,3 C 79 % 1023,1 hPa 0,0 l/m 0,0 km/h (0 Bft) N 0 0 min 0,0 UV-I 0 W/m 0,0 km/h (0 Bft)
23.07.2019 02:46 19,3 C 19,3 C 19,3 C 79 % 1023,2 hPa 0,0 l/m 0,0 km/h (0 Bft) N 0 0 min 0,0 UV-I 0 W/m 0,0 km/h (0 Bft)
23.07.2019 02:45 19,3 C 19,3 C 19,3 C 79 % 1023,2 hPa 0,0 l/m 0,0 km/h (0 Bft) N 0 0 min 0,0 UV-I 0 W/m 0,0 km/h (0 Bft)
23.07.2019 02:44 19,3 C 19,3 C 19,4 C 78 % 1023,2 hPa 0,0 l/m 0,0 km/h (0 Bft) N 0 0 min 0,0 UV-I 0 W/m 0,0 km/h (0 Bft)
23.07.2019 02:43 19,4 C 19,4 C 19,4 C 78 % 1023,2 hPa 0,0 l/m 0,0 km/h (0 Bft) N 0 0 min 0,0 UV-I 0 W/m 0,0 km/h (0 Bft)
23.07.2019 02:42 19,4 C 19,4 C 19,4 C 78 % 1023,2 hPa 0,0 l/m 0,0 km/h (0 Bft) N 0 0 min 0,0 UV-I 0 W/m 0,0 km/h (0 Bft)
23.07.2019 02:41 19,4 C 19,4 C 19,5 C 78 % 1023,2 hPa 0,0 l/m 0,0 km/h (0 Bft) N 0 0 min 0,0 UV-I 0 W/m 0,0 km/h (0 Bft)
23.07.2019 02:40 19,5 C 19,5 C 19,6 C 77 % 1023,2 hPa 0,0 l/m 0,0 km/h (0 Bft) N 0 0 min 0,0 UV-I 0 W/m 0,0 km/h (0 Bft)
23.07.2019 02:39 19,6 C 19,6 C 19,6 C 78 % 1023,1 hPa 0,0 l/m 0,0 km/h (0 Bft) N 0 0 min 0,0 UV-I 0 W/m 0,0 km/h (0 Bft)
23.07.2019 02:38 19,6 C 19,6 C 19,6 C 78 % 1023,2 hPa 0,0 l/m 0,0 km/h (0 Bft) N 0 0 min 0,0 UV-I 0 W/m 0,0 km/h (0 Bft)
23.07.2019 02:37 19,6 C 19,6 C 19,7 C 78 % 1023,2 hPa 0,0 l/m 0,0 km/h (0 Bft) N 0 0 min 0,0 UV-I 0 W/m 0,0 km/h (0 Bft)
23.07.2019 02:36 19,7 C 19,6 C 19,7 C 78 % 1023,1 hPa 0,0 l/m 0,0 km/h (0 Bft) N 0 0 min 0,0 UV-I 0 W/m 0,0 km/h (0 Bft)
23.07.2019 02:35 19,7 C 19,7 C 19,7 C 78 % 1023,1 hPa 0,0 l/m 0,0 km/h (0 Bft) N 0 0 min 0,0 UV-I 0 W/m 0,0 km/h (0 Bft)
23.07.2019 02:34 19,7 C 19,7 C 19,7 C 78 % 1023,2 hPa 0,0 l/m 0,0 km/h (0 Bft) N 0 0 min 0,0 UV-I 0 W/m 0,0 km/h (0 Bft)
23.07.2019 02:33 19,7 C 19,7 C 19,7 C 78 % 1023,2 hPa 0,0 l/m 0,0 km/h (0 Bft) N 0 0 min 0,0 UV-I 0 W/m 0,0 km/h (0 Bft)
23.07.2019 02:32 19,7 C 19,7 C 19,7 C 78 % 1023,2 hPa 0,0 l/m 0,0 km/h (0 Bft) N 0 0 min 0,0 UV-I 0 W/m 0,0 km/h (0 Bft)
23.07.2019 02:31 19,7 C 19,7 C 19,7 C 78 % 1023,2 hPa 0,0 l/m 0,0 km/h (0 Bft) N 0 0 min 0,0 UV-I 0 W/m 0,0 km/h (0 Bft)
23.07.2019 02:30 19,7 C 19,7 C 19,7 C 78 % 1023,1 hPa 0,0 l/m 0,0 km/h (0 Bft) N 0 0 min 0,0 UV-I 0 W/m 0,0 km/h (0 Bft)
23.07.2019 02:29 19,7 C 19,7 C 19,7 C 78 % 1023,1 hPa 0,0 l/m 0,0 km/h (0 Bft) N 0 0 min 0,0 UV-I 0 W/m 0,0 km/h (0 Bft)
23.07.2019 02:28 19,7 C 19,7 C 19,8 C 78 % 1023,1 hPa 0,0 l/m 0,0 km/h (0 Bft) N 0 0 min 0,0 UV-I 0 W/m 0,0 km/h (0 Bft)
23.07.2019 02:27 19,7 C 19,7 C 19,7 C 78 % 1023,2 hPa 0,0 l/m 0,0 km/h (0 Bft) N 0 0 min 0,0 UV-I 0 W/m 0,0 km/h (0 Bft)
23.07.2019 02:26 19,8 C 19,7 C 19,8 C 78 % 1023,1 hPa 0,0 l/m 0,0 km/h (0 Bft) N 0 0 min 0,0 UV-I 0 W/m 0,0 km/h (0 Bft)
23.07.2019 02:25 19,7 C 19,7 C 19,7 C 78 % 1023,2 hPa 0,0 l/m 0,0 km/h (0 Bft) N 0 0 min 0,0 UV-I 0 W/m 0,0 km/h (0 Bft)
23.07.2019 02:24 19,8 C 19,7 C 19,8 C 78 % 1023,1 hPa 0,0 l/m 0,0 km/h (0 Bft) N 0 0 min 0,0 UV-I 0 W/m 0,0 km/h (0 Bft)
23.07.2019 02:23 19,7 C 19,7 C 19,8 C 78 % 1023,2 hPa 0,0 l/m 0,0 km/h (0 Bft) N 0 0 min 0,0 UV-I 0 W/m 0,0 km/h (0 Bft)
23.07.2019 02:22 19,8 C 19,7 C 19,8 C 78 % 1023,2 hPa 0,0 l/m 0,0 km/h (0 Bft) N 0 0 min 0,0 UV-I 0 W/m 0,0 km/h (0 Bft)
23.07.2019 02:21 19,8 C 19,8 C 19,8 C 78 % 1023,2 hPa 0,0 l/m 0,0 km/h (0 Bft) N 0 0 min 0,0 UV-I 0 W/m 0,0 km/h (0 Bft)
23.07.2019 02:20 19,8 C 19,8 C 19,8 C 78 % 1023,2 hPa 0,0 l/m 0,0 km/h (0 Bft) N 0 0 min 0,0 UV-I 0 W/m 0,0 km/h (0 Bft)
23.07.2019 02:19 19,8 C 19,8 C 19,8 C 78 % 1023,2 hPa 0,0 l/m 0,0 km/h (0 Bft) N 0 0 min 0,0 UV-I 0 W/m 0,0 km/h (0 Bft)
23.07.2019 02:18 19,8 C 19,8 C 19,8 C 78 % 1023,2 hPa 0,0 l/m 0,0 km/h (0 Bft) N 0 0 min 0,0 UV-I 0 W/m 0,0 km/h (0 Bft)
23.07.2019 02:17 19,8 C 19,8 C 19,8 C 78 % 1023,2 hPa 0,0 l/m 0,0 km/h (0 Bft) N 0 0 min 0,0 UV-I 0 W/m 0,0 km/h (0 Bft)
23.07.2019 02:16 19,8 C 19,8 C 19,8 C 78 % 1023,3 hPa 0,0 l/m 0,0 km/h (0 Bft) N 0 0 min 0,0 UV-I 0 W/m 0,0 km/h (0 Bft)
23.07.2019 02:15 19,8 C 19,8 C 19,8 C 78 % 1023,3 hPa 0,0 l/m 0,0 km/h (0 Bft) N 0 0 min 0,0 UV-I 0 W/m 0,0 km/h (0 Bft)
23.07.2019 02:14 19,8 C 19,8 C 19,9 C 78 % 1023,3 hPa 0,0 l/m 0,0 km/h (0 Bft) N 0 0 min 0,0 UV-I 0 W/m 0,0 km/h (0 Bft)
23.07.2019 02:13 19,9 C 19,9 C 19,9 C 78 % 1023,3 hPa 0,0 l/m 0,0 km/h (0 Bft) N 0 0 min 0,0 UV-I 0 W/m 0,0 km/h (0 Bft)
23.07.2019 02:12 19,9 C 19,9 C 19,9 C 78 % 1023,3 hPa 0,0 l/m 0,0 km/h (0 Bft) N 0 0 min 0,0 UV-I 0 W/m 0,0 km/h (0 Bft)
23.07.2019 02:11 19,9 C 19,9 C 19,9 C 78 % 1023,3 hPa 0,0 l/m 0,0 km/h (0 Bft) N 0 0 min 0,0 UV-I 0 W/m 0,0 km/h (0 Bft)
23.07.2019 02:10 19,9 C 19,9 C 19,9 C 78 % 1023,4 hPa 0,0 l/m 0,0 km/h (0 Bft) N 0 0 min 0,0 UV-I 0 W/m 0,0 km/h (0 Bft)
23.07.2019 02:09 19,9 C 19,9 C 19,9 C 78 % 1023,3 hPa 0,0 l/m 0,0 km/h (0 Bft) N 0 0 min 0,0 UV-I 0 W/m 0,0 km/h (0 Bft)
23.07.2019 02:08 19,9 C 19,9 C 19,9 C 78 % 1023,4 hPa 0,0 l/m 0,0 km/h (0 Bft) N 0 0 min 0,0 UV-I 0 W/m 0,0 km/h (0 Bft)
23.07.2019 02:07 20,0 C 19,9 C 20,0 C 78 % 1023,4 hPa 0,0 l/m 0,0 km/h (0 Bft) N 0 0 min 0,0 UV-I 0 W/m 0,0 km/h (0 Bft)
23.07.2019 02:06 20,0 C 19,9 C 20,0 C 78 % 1023,3 hPa 0,0 l/m 0,0 km/h (0 Bft) N 0 0 min 0,0 UV-I 0 W/m 0,0 km/h (0 Bft)
23.07.2019 02:05 20,0 C 19,9 C 20,0 C 78 % 1023,3 hPa 0,0 l/m 0,0 km/h (0 Bft) N 0 0 min 0,0 UV-I 0 W/m 0,0 km/h (0 Bft)
23.07.2019 02:04 20,0 C 19,9 C 20,0 C 78 % 1023,3 hPa 0,0 l/m 0,0 km/h (0 Bft) N 0 0 min 0,0 UV-I 0 W/m 0,0 km/h (0 Bft)
23.07.2019 02:03 20,0 C 20,0 C 20,0 C 78 % 1023,3 hPa 0,0 l/m 0,0 km/h (0 Bft) N 0 0 min 0,0 UV-I 0 W/m 0,0 km/h (0 Bft)
23.07.2019 02:02 20,0 C 19,9 C 20,0 C 78 % 1023,3 hPa 0,0 l/m 0,0 km/h (0 Bft) N 0 0 min 0,0 UV-I 0 W/m 0,0 km/h (0 Bft)
23.07.2019 02:01 20,0 C 20,0 C 20,0 C 78 % 1023,3 hPa 0,0 l/m 0,0 km/h (0 Bft) N 0 0 min 0,0 UV-I 0 W/m 0,0 km/h (0 Bft)
23.07.2019 02:00 20,1 C 20,0 C 20,1 C 78 % 1023,3 hPa 0,0 l/m 0,0 km/h (0 Bft) N 0 0 min 0,0 UV-I 0 W/m 0,0 km/h (0 Bft)
23.07.2019 01:59 20,1 C 20,1 C 20,1 C 78 % 1023,3 hPa 0,0 l/m 0,0 km/h (0 Bft) N 0 0 min 0,0 UV-I 0 W/m 0,0 km/h (0 Bft)
23.07.2019 01:58 20,1 C 20,1 C 20,1 C 78 % 1023,4 hPa 0,0 l/m 0,0 km/h (0 Bft) N 0 0 min 0,0 UV-I 0 W/m 0,0 km/h (0 Bft)
23.07.2019 01:57 20,1 C 20,1 C 20,1 C 78 % 1023,4 hPa 0,0 l/m 0,0 km/h (0 Bft) N 0 0 min 0,0 UV-I 0 W/m 0,0 km/h (0 Bft)
23.07.2019 01:56 20,1 C 20,1 C 20,2 C 78 % 1023,4 hPa 0,0 l/m 0,0 km/h (0 Bft) N 0 0 min 0,0 UV-I 0 W/m 0,0 km/h (0 Bft)
23.07.2019 01:55 20,2 C 20,2 C 20,2 C 78 % 1023,3 hPa 0,0 l/m 0,0 km/h (0 Bft) N 0 0 min 0,0 UV-I 0 W/m 0,0 km/h (0 Bft)
23.07.2019 01:54 20,2 C 20,2 C 20,2 C 78 % 1023,3 hPa 0,0 l/m 0,0 km/h (0 Bft) N 0 0 min 0,0 UV-I 0 W/m 0,0 km/h (0 Bft)
23.07.2019 01:53 20,2 C 20,2 C 20,2 C 77 % 1023,4 hPa 0,0 l/m 0,0 km/h (0 Bft) N 0 0 min 0,0 UV-I 0 W/m 0,0 km/h (0 Bft)
23.07.2019 01:52 20,2 C 20,2 C 20,2 C 77 % 1023,3 hPa 0,0 l/m 0,0 km/h (0 Bft) N 0 0 min 0,0 UV-I 0 W/m 0,0 km/h (0 Bft)
23.07.2019 01:51 20,2 C 20,2 C 20,2 C 77 % 1023,3 hPa 0,0 l/m 0,0 km/h (0 Bft) N 0 0 min 0,0 UV-I 0 W/m 0,0 km/h (0 Bft)
23.07.2019 01:50 20,2 C 20,2 C 20,2 C 77 % 1023,3 hPa 0,0 l/m 0,0 km/h (0 Bft) N 0 0 min 0,0 UV-I 0 W/m 0,0 km/h (0 Bft)
23.07.2019 01:49 20,2 C 20,2 C 20,2 C 77 % 1023,4 hPa 0,0 l/m 0,0 km/h (0 Bft) N 0 0 min 0,0 UV-I 0 W/m 0,0 km/h (0 Bft)
23.07.2019 01:48 20,2 C 20,2 C 20,2 C 77 % 1023,4 hPa 0,0 l/m 0,0 km/h (0 Bft) N 0 0 min 0,0 UV-I 0 W/m 0,0 km/h (0 Bft)
23.07.2019 01:47 20,2 C 20,2 C 20,3 C 78 % 1023,4 hPa 0,0 l/m 0,0 km/h (0 Bft) N 0 0 min 0,0 UV-I 0 W/m 0,0 km/h (0 Bft)
23.07.2019 01:46 20,3 C 20,2 C 20,3 C 78 % 1023,4 hPa 0,0 l/m 0,0 km/h (0 Bft) N 0 0 min 0,0 UV-I 0 W/m 0,0 km/h (0 Bft)
23.07.2019 01:45 20,2 C 20,2 C 20,3 C 77 % 1023,4 hPa 0,0 l/m 0,0 km/h (0 Bft) N 0 0 min 0,0 UV-I 0 W/m 0,0 km/h (0 Bft)
23.07.2019 01:44 20,3 C 20,3 C 20,3 C 77 % 1023,4 hPa 0,0 l/m 0,0 km/h (0 Bft) N 0 0 min 0,0 UV-I 0 W/m 0,0 km/h (0 Bft)
23.07.2019 01:43 20,3 C 20,3 C 20,3 C 78 % 1023,4 hPa 0,0 l/m 0,0 km/h (0 Bft) N 0 0 min 0,0 UV-I 0 W/m 0,0 km/h (0 Bft)
23.07.2019 01:42 20,3 C 20,3 C 20,3 C 77 % 1023,3 hPa 0,0 l/m 0,0 km/h (0 Bft) N 0 0 min 0,0 UV-I 0 W/m 0,0 km/h (0 Bft)
23.07.2019 01:41 20,3 C 20,3 C 20,3 C 77 % 1023,3 hPa 0,0 l/m 0,0 km/h (0 Bft) N 0 0 min 0,0 UV-I 0 W/m 0,0 km/h (0 Bft)
23.07.2019 01:40 20,3 C 20,3 C 20,3 C 77 % 1023,4 hPa 0,0 l/m 0,0 km/h (0 Bft) N 0 0 min 0,0 UV-I 0 W/m 0,0 km/h (0 Bft)
23.07.2019 01:39 20,3 C 20,3 C 20,3 C 77 % 1023,3 hPa 0,0 l/m 0,0 km/h (0 Bft) N 0 0 min 0,0 UV-I 0 W/m 0,0 km/h (0 Bft)
23.07.2019 01:38 20,3 C 20,3 C 20,4 C 77 % 1023,4 hPa 0,0 l/m 0,0 km/h (0 Bft) N 0 0 min 0,0 UV-I 0 W/m 0,0 km/h (0 Bft)
23.07.2019 01:37 20,3 C 20,3 C 20,3 C 77 % 1023,3 hPa 0,0 l/m 0,0 km/h (0 Bft) N 0 0 min 0,0 UV-I 0 W/m 0,0 km/h (0 Bft)
23.07.2019 01:36 20,4 C 20,3 C 20,4 C 77 % 1023,3 hPa 0,0 l/m 0,0 km/h (0 Bft) N 0 0 min 0,0 UV-I 0 W/m 0,0 km/h (0 Bft)
23.07.2019 01:35 20,3 C 20,3 C 20,3 C 77 % 1023,3 hPa 0,0 l/m 0,0 km/h (0 Bft) N 0 0 min 0,0 UV-I 0 W/m 0,0 km/h (0 Bft)
23.07.2019 01:34 20,3 C 20,3 C 20,4 C 77 % 1023,3 hPa 0,0 l/m 0,0 km/h (0 Bft) N 0 0 min 0,0 UV-I 0 W/m 0,0 km/h (0 Bft)
23.07.2019 01:33 20,3 C 20,3 C 20,4 C 77 % 1023,3 hPa 0,0 l/m 0,0 km/h (0 Bft) N 0 0 min 0,0 UV-I 0 W/m 0,0 km/h (0 Bft)
23.07.2019 01:32 20,4 C 20,3 C 20,4 C 77 % 1023,3 hPa 0,0 l/m 0,0 km/h (0 Bft) N 0 0 min 0,0 UV-I 0 W/m 0,0 km/h (0 Bft)
23.07.2019 01:31 20,4 C 20,3 C 20,4 C 77 % 1023,2 hPa 0,0 l/m 0,0 km/h (0 Bft) N 0 0 min 0,0 UV-I 0 W/m 0,0 km/h (0 Bft)
23.07.2019 01:30 20,4 C 20,3 C 20,4 C 77 % 1023,3 hPa 0,0 l/m 0,0 km/h (0 Bft) N 0 0 min 0,0 UV-I 0 W/m 0,0 km/h (0 Bft)
23.07.2019 01:29 20,3 C 20,3 C 20,4 C 77 % 1023,3 hPa 0,0 l/m 0,0 km/h (0 Bft) N 0 0 min 0,0 UV-I 0 W/m 0,0 km/h (0 Bft)
23.07.2019 01:28 20,3 C 20,3 C 20,3 C 77 % 1023,3 hPa 0,0 l/m 0,0 km/h (0 Bft) N 0 0 min 0,0 UV-I 0 W/m 0,0 km/h (0 Bft)
23.07.2019 01:27 20,3 C 20,3 C 20,4 C 77 % 1023,3 hPa 0,0 l/m 0,0 km/h (0 Bft) N 0 0 min 0,0 UV-I 0 W/m 0,0 km/h (0 Bft)
23.07.2019 01:26 20,4 C 20,3 C 20,4 C 78 % 1023,3 hPa 0,0 l/m 0,0 km/h (0 Bft) N 0 0 min 0,0 UV-I 0 W/m 0,0 km/h (0 Bft)
23.07.2019 01:25 20,3 C 20,3 C 20,4 C 78 % 1023,3 hPa 0,0 l/m 0,0 km/h (0 Bft) N 0 0 min 0,0 UV-I 0 W/m 0,0 km/h (0 Bft)
23.07.2019 01:24 20,4 C 20,4 C 20,4 C 77 % 1023,3 hPa 0,0 l/m 0,0 km/h (0 Bft) N 0 0 min 0,0 UV-I 0 W/m 0,0 km/h (0 Bft)
23.07.2019 01:23 20,4 C 20,4 C 20,4 C 77 % 1023,3 hPa 0,0 l/m 0,0 km/h (0 Bft) N 0 0 min 0,0 UV-I 0 W/m 0,0 km/h (0 Bft)
23.07.2019 01:22 20,4 C 20,4 C 20,4 C 77 % 1023,3 hPa 0,0 l/m 0,0 km/h (0 Bft) N 0 0 min 0,0 UV-I 0 W/m 0,0 km/h (0 Bft)
23.07.2019 01:21 20,4 C 20,4 C 20,4 C 77 % 1023,3 hPa 0,0 l/m 0,0 km/h (0 Bft) N 0 0 min 0,0 UV-I 0 W/m 0,0 km/h (0 Bft)
23.07.2019 01:20 20,4 C 20,4 C 20,4 C 77 % 1023,3 hPa 0,0 l/m 0,0 km/h (0 Bft) N 0 0 min 0,0 UV-I 0 W/m 0,0 km/h (0 Bft)
23.07.2019 01:19 20,4 C 20,4 C 20,4 C 77 % 1023,3 hPa 0,0 l/m 0,0 km/h (0 Bft) N 0 0 min 0,0 UV-I 0 W/m 0,0 km/h (0 Bft)
23.07.2019 01:18 20,4 C 20,4 C 20,5 C 77 % 1023,3 hPa 0,0 l/m 0,0 km/h (0 Bft) N 0 0 min 0,0 UV-I 0 W/m 0,0 km/h (0 Bft)
23.07.2019 01:17 20,5 C 20,5 C 20,5 C 77 % 1023,3 hPa 0,0 l/m 0,0 km/h (0 Bft) N 0 0 min 0,0 UV-I 0 W/m 0,0 km/h (0 Bft)
23.07.2019 01:16 20,5 C 20,5 C 20,5 C 77 % 1023,4 hPa 0,0 l/m 0,0 km/h (0 Bft) N 0 0 min 0,0 UV-I 0 W/m 0,0 km/h (0 Bft)
23.07.2019 01:15 20,5 C 20,5 C 20,5 C 77 % 1023,4 hPa 0,0 l/m 0,0 km/h (0 Bft) N 0 0 min 0,0 UV-I 0 W/m 0,0 km/h (0 Bft)
23.07.2019 01:14 20,5 C 20,5 C 20,5 C 77 % 1023,4 hPa 0,0 l/m 0,0 km/h (0 Bft) N 0 0 min 0,0 UV-I 0 W/m 0,0 km/h (0 Bft)
23.07.2019 01:13 20,5 C 20,5 C 20,6 C 77 % 1023,3 hPa 0,0 l/m 0,0 km/h (0 Bft) N 0 0 min 0,0 UV-I 0 W/m 0,0 km/h (0 Bft)
23.07.2019 01:12 20,5 C 20,5 C 20,6 C 77 % 1023,4 hPa 0,0 l/m 0,0 km/h (0 Bft) N 0 0 min 0,0 UV-I 0 W/m 0,0 km/h (0 Bft)
23.07.2019 01:11 20,5 C 20,5 C 20,6 C 76 % 1023,4 hPa 0,0 l/m 0,0 km/h (0 Bft) N 0 0 min 0,0 UV-I 0 W/m 0,0 km/h (0 Bft)
23.07.2019 01:10 20,5 C 20,5 C 20,6 C 76 % 1023,3 hPa 0,0 l/m 0,0 km/h (0 Bft) N 0 0 min 0,0 UV-I 0 W/m 0,0 km/h (0 Bft)
23.07.2019 01:09 20,6 C 20,6 C 20,6 C 77 % 1023,3 hPa 0,0 l/m 0,0 km/h (0 Bft) N 0 0 min 0,0 UV-I 0 W/m 0,0 km/h (0 Bft)
23.07.2019 01:08 20,6 C 20,6 C 20,6 C 77 % 1023,3 hPa 0,0 l/m 0,0 km/h (0 Bft) N 0 0 min 0,0 UV-I 0 W/m 0,0 km/h (0 Bft)
23.07.2019 01:07 20,6 C 20,6 C 20,6 C 77 % 1023,4 hPa 0,0 l/m 0,0 km/h (0 Bft) N 0 0 min 0,0 UV-I 0 W/m 0,0 km/h (0 Bft)
23.07.2019 01:06 20,6 C 20,6 C 20,6 C 77 % 1023,3 hPa 0,0 l/m 0,0 km/h (0 Bft) N 0 0 min 0,0 UV-I 0 W/m 0,0 km/h (0 Bft)
23.07.2019 01:05 20,6 C 20,6 C 20,6 C 77 % 1023,3 hPa 0,0 l/m 0,0 km/h (0 Bft) N 0 0 min 0,0 UV-I 0 W/m 0,0 km/h (0 Bft)
23.07.2019 01:04 20,7 C 20,6 C 20,7 C 76 % 1023,4 hPa 0,0 l/m 0,0 km/h (0 Bft) N 0 0 min 0,0 UV-I 0 W/m 0,0 km/h (0 Bft)
23.07.2019 01:03 20,7 C 20,7 C 20,7 C 76 % 1023,4 hPa 0,0 l/m 0,0 km/h (0 Bft) N 0 0 min 0,0 UV-I 0 W/m 0,0 km/h (0 Bft)
23.07.2019 01:02 20,7 C 20,7 C 20,8 C 76 % 1023,4 hPa 0,0 l/m 0,0 km/h (0 Bft) N 0 0 min 0,0 UV-I 0 W/m 0,0 km/h (0 Bft)
23.07.2019 01:01 20,8 C 20,8 C 20,8 C 76 % 1023,4 hPa 0,0 l/m 0,0 km/h (0 Bft) N 0 0 min 0,0 UV-I 0 W/m 0,0 km/h (0 Bft)
23.07.2019 01:00 20,8 C 20,8 C 20,8 C 75 % 1023,3 hPa 0,0 l/m 0,0 km/h (0 Bft) N 0 0 min 0,0 UV-I 0 W/m 0,0 km/h (0 Bft)
23.07.2019 00:59 20,8 C 20,8 C 20,9 C 75 % 1023,4 hPa 0,0 l/m 0,0 km/h (0 Bft) N 0 0 min 0,0 UV-I 0 W/m 0,0 km/h (0 Bft)
23.07.2019 00:58 20,8 C 20,8 C 20,9 C 75 % 1023,4 hPa 0,0 l/m 0,0 km/h (0 Bft) N 0 0 min 0,0 UV-I 0 W/m 0,0 km/h (0 Bft)
23.07.2019 00:57 20,9 C 20,9 C 20,9 C 75 % 1023,3 hPa 0,0 l/m 0,0 km/h (0 Bft) N 0 0 min 0,0 UV-I 0 W/m 0,0 km/h (0 Bft)
23.07.2019 00:56 20,9 C 20,9 C 20,9 C 74 % 1023,3 hPa 0,0 l/m 0,0 km/h (0 Bft) N 0 0 min 0,0 UV-I 0 W/m 0,0 km/h (0 Bft)
23.07.2019 00:55 20,9 C 20,9 C 20,9 C 74 % 1023,3 hPa 0,0 l/m 0,0 km/h (0 Bft) N 0 0 min 0,0 UV-I 0 W/m 0,0 km/h (0 Bft)
23.07.2019 00:54 20,9 C 20,9 C 21,0 C 74 % 1023,3 hPa 0,0 l/m 0,0 km/h (0 Bft) N 0 0 min 0,0 UV-I 0 W/m 0,0 km/h (0 Bft)
23.07.2019 00:53 21,0 C 21,0 C 21,1 C 74 % 1023,3 hPa 0,0 l/m 0,0 km/h (0 Bft) N 0 0 min 0,0 UV-I 0 W/m 0,0 km/h (0 Bft)
23.07.2019 00:52 21,1 C 21,1 C 21,1 C 74 % 1023,4 hPa 0,0 l/m 0,0 km/h (0 Bft) N 0 0 min 0,0 UV-I 0 W/m 0,0 km/h (0 Bft)
23.07.2019 00:51 21,1 C 21,1 C 21,2 C 74 % 1023,3 hPa 0,0 l/m 0,0 km/h (0 Bft) N 0 0 min 0,0 UV-I 0 W/m 0,0 km/h (0 Bft)
23.07.2019 00:50 21,1 C 21,1 C 21,2 C 74 % 1023,4 hPa 0,0 l/m 0,0 km/h (0 Bft) N 0 0 min 0,0 UV-I 0 W/m 0,0 km/h (0 Bft)
23.07.2019 00:49 21,2 C 21,2 C 21,2 C 75 % 1023,3 hPa 0,0 l/m 0,0 km/h (0 Bft) N 0 0 min 0,0 UV-I 0 W/m 0,0 km/h (0 Bft)
23.07.2019 00:48 21,2 C 21,2 C 21,3 C 75 % 1023,3 hPa 0,0 l/m 0,0 km/h (0 Bft) N 0 0 min 0,0 UV-I 0 W/m 0,0 km/h (0 Bft)
23.07.2019 00:47 21,2 C 21,2 C 21,3 C 75 % 1023,3 hPa 0,0 l/m 0,0 km/h (0 Bft) N 0 0 min 0,0 UV-I 0 W/m 0,0 km/h (0 Bft)
23.07.2019 00:46 21,3 C 21,3 C 21,3 C 75 % 1023,3 hPa 0,0 l/m 0,0 km/h (0 Bft) N 0 0 min 0,0 UV-I 0 W/m 0,0 km/h (0 Bft)
23.07.2019 00:45 21,3 C 21,3 C 21,3 C 75 % 1023,3 hPa 0,0 l/m 0,0 km/h (0 Bft) N 0 0 min 0,0 UV-I 0 W/m 0,0 km/h (0 Bft)
23.07.2019 00:44 21,3 C 21,3 C 21,3 C 75 % 1023,3 hPa 0,0 l/m 0,0 km/h (0 Bft) N 0 0 min 0,0 UV-I 0 W/m 0,0 km/h (0 Bft)
23.07.2019 00:43 21,3 C 21,3 C 21,3 C 75 % 1023,3 hPa 0,0 l/m 0,0 km/h (0 Bft) N 0 0 min 0,0 UV-I 0 W/m 0,0 km/h (0 Bft)
23.07.2019 00:42 21,3 C 21,3 C 21,4 C 74 % 1023,3 hPa 0,0 l/m 0,0 km/h (0 Bft) N 0 0 min 0,0 UV-I 0 W/m 0,0 km/h (0 Bft)
23.07.2019 00:41 21,3 C 21,3 C 21,4 C 74 % 1023,3 hPa 0,0 l/m 0,0 km/h (0 Bft) N 0 0 min 0,0 UV-I 0 W/m 0,0 km/h (0 Bft)
23.07.2019 00:40 21,4 C 21,3 C 21,4 C 74 % 1023,3 hPa 0,0 l/m 0,0 km/h (0 Bft) N 0 0 min 0,0 UV-I 0 W/m 0,0 km/h (0 Bft)
23.07.2019 00:39 21,4 C 21,4 C 21,4 C 74 % 1023,3 hPa 0,0 l/m 0,0 km/h (0 Bft) N 0 0 min 0,0 UV-I 0 W/m 0,0 km/h (0 Bft)
23.07.2019 00:38 21,4 C 21,4 C 21,4 C 74 % 1023,3 hPa 0,0 l/m 0,0 km/h (0 Bft) N 0 0 min 0,0 UV-I 0 W/m 0,0 km/h (0 Bft)
23.07.2019 00:37 21,4 C 21,4 C 21,4 C 74 % 1023,4 hPa 0,0 l/m 0,0 km/h (0 Bft) N 0 0 min 0,0 UV-I 0 W/m 0,0 km/h (0 Bft)
23.07.2019 00:36 21,4 C 21,4 C 21,4 C 74 % 1023,3 hPa 0,0 l/m 0,0 km/h (0 Bft) N 0 0 min 0,0 UV-I 0 W/m 0,0 km/h (0 Bft)
23.07.2019 00:35 21,4 C 21,4 C 21,4 C 74 % 1023,3 hPa 0,0 l/m 0,0 km/h (0 Bft) N 0 0 min 0,0 UV-I 0 W/m 0,0 km/h (0 Bft)
23.07.2019 00:34 21,4 C 21,4 C 21,4 C 74 % 1023,3 hPa 0,0 l/m 0,0 km/h (0 Bft) N 0 0 min 0,0 UV-I 0 W/m 0,0 km/h (0 Bft)
23.07.2019 00:33 21,4 C 21,4 C 21,4 C 74 % 1023,2 hPa 0,0 l/m 0,0 km/h (0 Bft) N 0 0 min 0,0 UV-I 0 W/m 0,0 km/h (0 Bft)
23.07.2019 00:32 21,4 C 21,4 C 21,4 C 74 % 1023,3 hPa 0,0 l/m 0,0 km/h (0 Bft) N 0 0 min 0,0 UV-I 0 W/m 0,0 km/h (0 Bft)
23.07.2019 00:31 21,4 C 21,4 C 21,4 C 74 % 1023,3 hPa 0,0 l/m 0,0 km/h (0 Bft) N 0 0 min 0,0 UV-I 0 W/m 0,0 km/h (0 Bft)
23.07.2019 00:30 21,4 C 21,4 C 21,4 C 74 % 1023,3 hPa 0,0 l/m 0,0 km/h (0 Bft) N 0 0 min 0,0 UV-I 0 W/m 0,0 km/h (0 Bft)
23.07.2019 00:29 21,4 C 21,4 C 21,5 C 75 % 1023,3 hPa 0,0 l/m 0,0 km/h (0 Bft) N 0 0 min 0,0 UV-I 0 W/m 0,0 km/h (0 Bft)
23.07.2019 00:28 21,5 C 21,5 C 21,5 C 75 % 1023,3 hPa 0,0 l/m 0,0 km/h (0 Bft) N 0 0 min 0,0 UV-I 0 W/m 0,0 km/h (0 Bft)
23.07.2019 00:27 21,5 C 21,5 C 21,6 C 74 % 1023,3 hPa 0,0 l/m 0,0 km/h (0 Bft) N 0 0 min 0,0 UV-I 0 W/m 0,0 km/h (0 Bft)
23.07.2019 00:26 21,6 C 21,6 C 21,6 C 74 % 1023,3 hPa 0,0 l/m 0,0 km/h (0 Bft) N 0 0 min 0,0 UV-I 0 W/m 0,0 km/h (0 Bft)
23.07.2019 00:25 21,6 C 21,6 C 21,6 C 74 % 1023,3 hPa 0,0 l/m 0,0 km/h (0 Bft) N 0 0 min 0,0 UV-I 0 W/m 0,0 km/h (0 Bft)
23.07.2019 00:24 21,6 C 21,6 C 21,6 C 74 % 1023,3 hPa 0,0 l/m 0,0 km/h (0 Bft) N 0 0 min 0,0 UV-I 0 W/m 0,0 km/h (0 Bft)
23.07.2019 00:23 21,6 C 21,6 C 21,6 C 74 % 1023,3 hPa 0,0 l/m 0,0 km/h (0 Bft) N 0 0 min 0,0 UV-I 0 W/m 0,0 km/h (0 Bft)
23.07.2019 00:22 21,6 C 21,6 C 21,7 C 74 % 1023,3 hPa 0,0 l/m 0,0 km/h (0 Bft) N 0 0 min 0,0 UV-I 0 W/m 0,0 km/h (0 Bft)
23.07.2019 00:21 21,6 C 21,6 C 21,6 C 74 % 1023,3 hPa 0,0 l/m 0,0 km/h (0 Bft) N 0 0 min 0,0 UV-I 0 W/m 0,0 km/h (0 Bft)
23.07.2019 00:20 21,7 C 21,6 C 21,7 C 73 % 1023,3 hPa 0,0 l/m 0,0 km/h (0 Bft) N 0 0 min 0,0 UV-I 0 W/m 0,0 km/h (0 Bft)
23.07.2019 00:19 21,7 C 21,6 C 21,7 C 73 % 1023,3 hPa 0,0 l/m 0,0 km/h (0 Bft) N 0 0 min 0,0 UV-I 0 W/m 0,0 km/h (0 Bft)
23.07.2019 00:18 21,7 C 21,7 C 21,7 C 73 % 1023,3 hPa 0,0 l/m 0,0 km/h (0 Bft) N 0 0 min 0,0 UV-I 0 W/m 0,0 km/h (0 Bft)
23.07.2019 00:17 21,7 C 21,7 C 21,7 C 74 % 1023,3 hPa 0,0 l/m 0,0 km/h (0 Bft) N 0 0 min 0,0 UV-I 0 W/m 0,0 km/h (0 Bft)
23.07.2019 00:16 21,7 C 21,7 C 21,7 C 73 % 1023,3 hPa 0,0 l/m 0,0 km/h (0 Bft) N 0 0 min 0,0 UV-I 0 W/m 0,0 km/h (0 Bft)
23.07.2019 00:15 21,7 C 21,7 C 21,7 C 74 % 1023,3 hPa 0,0 l/m 0,0 km/h (0 Bft) N 0 0 min 0,0 UV-I 0 W/m 0,0 km/h (0 Bft)
23.07.2019 00:14 21,7 C 21,7 C 21,7 C 74 % 1023,3 hPa 0,0 l/m 0,0 km/h (0 Bft) N 0 0 min 0,0 UV-I 0 W/m 0,0 km/h (0 Bft)
23.07.2019 00:13 21,7 C 21,7 C 21,7 C 74 % 1023,3 hPa 0,0 l/m 0,0 km/h (0 Bft) N 0 0 min 0,0 UV-I 0 W/m 0,0 km/h (0 Bft)
23.07.2019 00:12 21,7 C 21,7 C 21,7 C 73 % 1023,2 hPa 0,0 l/m 0,0 km/h (0 Bft) N 0 0 min 0,0 UV-I 0 W/m 0,0 km/h (0 Bft)
23.07.2019 00:11 21,7 C 21,7 C 21,7 C 73 % 1023,3 hPa 0,0 l/m 0,0 km/h (0 Bft) N 0 0 min 0,0 UV-I 0 W/m 0,0 km/h (0 Bft)
23.07.2019 00:10 21,7 C 21,7 C 21,7 C 73 % 1023,2 hPa 0,0 l/m 0,0 km/h (0 Bft) N 0 0 min 0,0 UV-I 0 W/m 0,0 km/h (0 Bft)
23.07.2019 00:09 21,7 C 21,7 C 21,7 C 73 % 1023,3 hPa 0,0 l/m 0,0 km/h (0 Bft) N 0 0 min 0,0 UV-I 0 W/m 0,0 km/h (0 Bft)
23.07.2019 00:08 21,7 C 21,7 C 21,7 C 73 % 1023,3 hPa 0,0 l/m 0,0 km/h (0 Bft) N 0 0 min 0,0 UV-I 0 W/m 0,0 km/h (0 Bft)
23.07.2019 00:07 21,7 C 21,7 C 21,7 C 73 % 1023,2 hPa 0,0 l/m 0,0 km/h (0 Bft) N 0 0 min 0,0 UV-I 0 W/m 0,0 km/h (0 Bft)
23.07.2019 00:06 21,7 C 21,7 C 21,8 C 73 % 1023,3 hPa 0,0 l/m 0,0 km/h (0 Bft) N 0 0 min 0,0 UV-I 0 W/m 0,0 km/h (0 Bft)
23.07.2019 00:05 21,7 C 21,7 C 21,8 C 73 % 1023,3 hPa 0,0 l/m 0,0 km/h (0 Bft) N 0 0 min 0,0 UV-I 0 W/m 0,0 km/h (0 Bft)
23.07.2019 00:04 21,8 C 21,8 C 21,8 C 73 % 1023,2 hPa 0,0 l/m 0,0 km/h (0 Bft) N 0 0 min 0,0 UV-I 0 W/m 0,0 km/h (0 Bft)
23.07.2019 00:03 21,8 C 21,8 C 21,8 C 73 % 1023,2 hPa 0,0 l/m 0,0 km/h (0 Bft) N 0 0 min 0,0 UV-I 0 W/m 0,0 km/h (0 Bft)
23.07.2019 00:02 21,8 C 21,8 C 21,8 C 73 % 1023,2 hPa 0,0 l/m 0,0 km/h (0 Bft) N 0 0 min 0,0 UV-I 0 W/m 0,0 km/h (0 Bft)
23.07.2019 00:01 21,9 C 21,9 C 21,9 C 73 % 1023,2 hPa 0,0 l/m 0,0 km/h (0 Bft) N 0 0 min 0,0 UV-I 0 W/m 0,0 km/h (0 Bft)
23.07.2019 00:00 21,9 C 21,9 C 21,9 C 73 % 1023,2 hPa 0,0 l/m 0,0 km/h (0 Bft) N 0 0 min 0,0 UV-I 0 W/m 0,0 km/h (0 Bft)
_ Min-Zeit 04:30 04:30 04:24 12:41 12:43 - 00:00 - - - - - 00:00
Minimum _ 18,0 C 18,0 C 18,1 C 37 % 1021,4 hPa - 0,0 km/h (0 Bft) - - - - - 0,0 km/h (0 Bft)
_ Max-Zeit 12:41 12:42 12:41 04:25 00:37 00:00 12:19 - - 07:26 12:32 12:39 12:29
Maximum _ 31,7 C 31,7 C 31,7 C 82 % 1023,4 hPa 0,0 l/m 11,3 km/h
O-SO (2 Bft)
- - 1 min 6,2 UV-I 782 W/m 19,3 km/h
SO (3 Bft)
Durchschnitt _ 22,5 C 22,5 C 22,5 C 68 % 1022,8 hPa #0,0 l/m 0,6 km/h (0 Bft) O-SO - #5:20 h 3,3 UV-I 400 W/m 1,3 km/h (1 Bft)